Wetterdaten: Dienstag, 24.05.2022
Datum Zeit Temp. Aussen Temp. o. S. Temp +5cm Feuchte Auss Luftdruck Regen Sonnenschein Regendauer Solar Windben Empfang
24.05.2022 00:00 14,8 C 13,9 C 10,6 C 94 % 1001,7 hPa 0,0 l/m 0 min 0 min 0 W/m 12,9 km/h (3 Bft) 100,00 %
24.05.2022 00:02 14,8 C 13,9 C 10,6 C 93 % 1001,8 hPa 0,0 l/m 0 min 0 min 0 W/m 6,4 km/h (2 Bft) 100,00 %
24.05.2022 00:04 14,8 C 13,9 C 10,6 C 93 % 1001,8 hPa 0,0 l/m 0 min 0 min 0 W/m 6,4 km/h (2 Bft) 100,00 %
24.05.2022 00:07 14,8 C 13,9 C 10,6 C 94 % 1001,9 hPa 0,0 l/m 0 min 0 min 0 W/m 16,1 km/h (3 Bft) 100,00 %
24.05.2022 00:08 14,8 C 13,9 C 10,6 C 94 % 1001,9 hPa 0,0 l/m 0 min 0 min 0 W/m 6,4 km/h (2 Bft) 95,65 %
24.05.2022 00:10 14,8 C 13,9 C 10,6 C 94 % 1002,0 hPa 0,0 l/m 0 min 0 min 0 W/m 16,1 km/h (3 Bft) 100,00 %
24.05.2022 00:12 14,8 C 13,9 C 10,6 C 94 % 1001,9 hPa 0,0 l/m 0 min 0 min 0 W/m 12,9 km/h (3 Bft) 100,00 %
24.05.2022 00:14 14,7 C 13,9 C 10,6 C 94 % 1001,9 hPa 0,0 l/m 0 min 0 min 0 W/m 12,9 km/h (3 Bft) 97,87 %
24.05.2022 00:16 14,7 C 13,9 C 10,6 C 94 % 1001,9 hPa 0,0 l/m 0 min 0 min 0 W/m 6,4 km/h (2 Bft) 100,00 %
24.05.2022 00:18 14,7 C 13,9 C 10,6 C 94 % 1002,0 hPa 0,0 l/m 0 min 0 min 0 W/m 6,4 km/h (2 Bft) 100,00 %
24.05.2022 00:20 14,7 C 13,9 C 10,6 C 94 % 1002,0 hPa 0,0 l/m 0 min 0 min 0 W/m 9,7 km/h (2 Bft) 100,00 %
24.05.2022 00:22 14,7 C 13,9 C 10,6 C 94 % 1002,0 hPa 0,0 l/m 0 min 0 min 0 W/m 9,7 km/h (2 Bft) 100,00 %
24.05.2022 00:24 14,7 C 13,9 C 10,6 C 94 % 1002,0 hPa 0,0 l/m 0 min 0 min 0 W/m 6,4 km/h (2 Bft) 100,00 %
24.05.2022 00:26 14,7 C 13,9 C 10,6 C 94 % 1002,0 hPa 0,0 l/m 0 min 0 min 0 W/m 12,9 km/h (3 Bft) 97,87 %
24.05.2022 00:28 14,6 C 13,9 C 10,6 C 94 % 1002,0 hPa 0,0 l/m 0 min 0 min 0 W/m 12,9 km/h (3 Bft) 97,87 %
24.05.2022 00:30 14,6 C 13,9 C 10,6 C 94 % 1002,0 hPa 0,0 l/m 0 min 0 min 0 W/m 19,3 km/h (3 Bft) 97,83 %
24.05.2022 00:32 14,6 C 13,9 C 10,6 C 94 % 1002,0 hPa 0,0 l/m 0 min 0 min 0 W/m 16,1 km/h (3 Bft) 97,87 %
24.05.2022 00:34 14,6 C 13,9 C 10,6 C 94 % 1002,0 hPa 0,0 l/m 0 min 0 min 0 W/m 6,4 km/h (2 Bft) 93,62 %
24.05.2022 00:36 14,6 C 13,9 C 10,6 C 95 % 1002,0 hPa 0,0 l/m 0 min 0 min 0 W/m 6,4 km/h (2 Bft) 97,87 %
24.05.2022 00:38 14,6 C 13,9 C 10,6 C 95 % 1002,0 hPa 0,0 l/m 0 min 0 min 0 W/m 12,9 km/h (3 Bft) 97,87 %
24.05.2022 00:40 14,6 C 13,9 C 10,6 C 95 % 1002,0 hPa 0,0 l/m 0 min 0 min 0 W/m 9,7 km/h (2 Bft) 97,14 %
24.05.2022 00:42 14,6 C 13,9 C 10,6 C 95 % 1002,0 hPa 0,0 l/m 0 min 0 min 0 W/m 6,4 km/h (2 Bft) 96,55 %
24.05.2022 00:44 14,6 C 13,9 C 10,6 C 95 % 1002,0 hPa 0,0 l/m 0 min 0 min 0 W/m 19,3 km/h (3 Bft) 97,87 %
24.05.2022 00:46 14,6 C 13,9 C 10,6 C 95 % 1002,1 hPa 0,0 l/m 0 min 0 min 0 W/m 6,4 km/h (2 Bft) 95,74 %
24.05.2022 00:48 14,6 C 13,9 C 10,6 C 95 % 1002,1 hPa 0,0 l/m 0 min 0 min 0 W/m 6,4 km/h (2 Bft) 97,87 %
24.05.2022 00:50 14,6 C 13,9 C 10,6 C 95 % 1002,1 hPa 0,0 l/m 0 min 0 min 0 W/m 12,9 km/h (3 Bft) 97,14 %
24.05.2022 00:52 14,6 C 13,9 C 10,6 C 95 % 1002,1 hPa 0,0 l/m 0 min 0 min 0 W/m 3,2 km/h (1 Bft) 94,92 %
24.05.2022 00:54 14,6 C 13,9 C 10,6 C 95 % 1002,2 hPa 0,0 l/m 0 min 0 min 0 W/m 6,4 km/h (2 Bft) 95,65 %
24.05.2022 00:56 14,6 C 13,9 C 10,6 C 95 % 1002,2 hPa 0,0 l/m 0 min 0 min 0 W/m 12,9 km/h (3 Bft) 95,74 %
24.05.2022 00:58 14,6 C 13,9 C 10,6 C 95 % 1002,2 hPa 0,0 l/m 0 min 0 min 0 W/m 6,4 km/h (2 Bft) 95,74 %
24.05.2022 01:00 14,6 C 13,9 C 10,6 C 95 % 1002,2 hPa 0,0 l/m 0 min 0 min 0 W/m 6,4 km/h (2 Bft) 95,74 %
24.05.2022 01:02 14,6 C 13,9 C 10,6 C 95 % 1002,2 hPa 0,0 l/m 0 min 0 min 0 W/m 9,7 km/h (2 Bft) 97,14 %
24.05.2022 01:04 14,6 C 13,9 C 10,6 C 95 % 1002,2 hPa 0,0 l/m 0 min 0 min 0 W/m 6,4 km/h (2 Bft) 94,92 %
24.05.2022 01:06 14,6 C 13,9 C 10,6 C 95 % 1002,2 hPa 0,0 l/m 0 min 0 min 0 W/m 9,7 km/h (2 Bft) 95,65 %
24.05.2022 01:08 14,6 C 13,9 C 10,6 C 95 % 1002,2 hPa 0,0 l/m 0 min 0 min 0 W/m 12,9 km/h (3 Bft) 94,44 %
24.05.2022 01:10 14,6 C 13,9 C 10,6 C 95 % 1002,2 hPa 0,0 l/m 0 min 0 min 0 W/m 3,2 km/h (1 Bft) 94,83 %
24.05.2022 01:12 14,6 C 13,9 C 10,6 C 95 % 1002,2 hPa 0,0 l/m 0 min 0 min 0 W/m 6,4 km/h (2 Bft) 93,62 %
24.05.2022 01:14 14,6 C 13,9 C 10,6 C 95 % 1002,2 hPa 0,0 l/m 0 min 0 min 0 W/m 6,4 km/h (2 Bft) 94,29 %
24.05.2022 01:16 14,5 C 13,9 C 10,6 C 94 % 1002,2 hPa 0,0 l/m 0 min 0 min 0 W/m 6,4 km/h (2 Bft) 96,61 %
24.05.2022 01:18 14,5 C 13,9 C 10,6 C 95 % 1002,3 hPa 0,0 l/m 0 min 0 min 0 W/m 6,4 km/h (2 Bft) 97,14 %
24.05.2022 01:20 14,5 C 13,9 C 10,6 C 95 % 1002,3 hPa 0,0 l/m 0 min 0 min 0 W/m 6,4 km/h (2 Bft) 97,87 %
24.05.2022 01:22 14,5 C 13,9 C 10,6 C 95 % 1002,3 hPa 0,0 l/m 0 min 0 min 0 W/m 6,4 km/h (2 Bft) 97,83 %
24.05.2022 01:24 14,5 C 13,9 C 10,6 C 94 % 1002,3 hPa 0,0 l/m 0 min 0 min 0 W/m 6,4 km/h (2 Bft) 98,31 %
24.05.2022 01:26 14,6 C 13,9 C 11,1 C 95 % 1002,3 hPa 0,0 l/m 0 min 0 min 0 W/m 9,7 km/h (2 Bft) 95,74 %
24.05.2022 01:28 14,5 C 13,9 C 11,1 C 95 % 1002,3 hPa 0,0 l/m 0 min 0 min 0 W/m 12,9 km/h (3 Bft) 100,00 %
24.05.2022 01:30 14,5 C 13,9 C 11,1 C 94 % 1002,2 hPa 0,0 l/m 0 min 0 min 0 W/m 6,4 km/h (2 Bft) 100,00 %
24.05.2022 01:32 14,5 C 13,9 C 11,1 C 94 % 1002,2 hPa 0,0 l/m 0 min 0 min 0 W/m 12,9 km/h (3 Bft) 100,00 %
24.05.2022 01:34 14,4 C 13,9 C 11,1 C 94 % 1002,2 hPa 0,0 l/m 0 min 0 min 0 W/m 19,3 km/h (3 Bft) 98,28 %
24.05.2022 01:36 14,4 C 13,9 C 11,1 C 94 % 1002,2 hPa 0,0 l/m 0 min 0 min 0 W/m 19,3 km/h (3 Bft) 100,00 %
24.05.2022 01:38 14,4 C 13,9 C 11,1 C 94 % 1002,2 hPa 0,0 l/m 0 min 0 min 0 W/m 6,4 km/h (2 Bft) 97,87 %
24.05.2022 01:40 14,4 C 13,9 C 11,1 C 94 % 1002,2 hPa 0,0 l/m 0 min 0 min 0 W/m 6,4 km/h (2 Bft) 100,00 %
24.05.2022 01:42 14,4 C 13,9 C 11,1 C 94 % 1002,3 hPa 0,0 l/m 0 min 0 min 0 W/m 9,7 km/h (2 Bft) 100,00 %
24.05.2022 01:44 14,4 C 13,9 C 11,1 C 94 % 1002,2 hPa 0,0 l/m 0 min 0 min 0 W/m 6,4 km/h (2 Bft) 97,87 %
24.05.2022 01:46 14,5 C 13,9 C 11,1 C 94 % 1002,2 hPa 0,0 l/m 0 min 0 min 0 W/m 6,4 km/h (2 Bft) 100,00 %
24.05.2022 01:48 14,5 C 13,9 C 11,1 C 94 % 1002,2 hPa 0,0 l/m 0 min 0 min 0 W/m 16,1 km/h (3 Bft) 98,31 %
24.05.2022 01:50 14,5 C 13,9 C 11,1 C 94 % 1002,2 hPa 0,0 l/m 0 min 0 min 0 W/m 9,7 km/h (2 Bft) 97,14 %
24.05.2022 01:52 14,5 C 13,9 C 11,1 C 94 % 1002,2 hPa 0,0 l/m 0 min 0 min 0 W/m 6,4 km/h (2 Bft) 97,87 %
24.05.2022 01:54 14,5 C 13,9 C 11,1 C 94 % 1002,2 hPa 0,0 l/m 0 min 0 min 0 W/m 6,4 km/h (2 Bft) 97,87 %
24.05.2022 01:56 14,6 C 13,9 C 11,1 C 95 % 1002,3 hPa 0,0 l/m 0 min 0 min 0 W/m 6,4 km/h (2 Bft) 97,87 %
24.05.2022 01:58 14,6 C 13,9 C 11,1 C 95 % 1002,2 hPa 0,0 l/m 0 min 0 min 0 W/m 12,9 km/h (3 Bft) 97,83 %
24.05.2022 02:00 14,6 C 13,9 C 11,1 C 95 % 1002,2 hPa 0,0 l/m 0 min 0 min 0 W/m 6,4 km/h (2 Bft) 97,87 %
24.05.2022 02:02 14,6 C 13,9 C 11,1 C 95 % 1002,2 hPa 0,0 l/m 0 min 0 min 0 W/m 12,9 km/h (3 Bft) 95,74 %
24.05.2022 02:04 14,5 C 13,9 C 11,1 C 94 % 1002,2 hPa 0,0 l/m 0 min 0 min 0 W/m 16,1 km/h (3 Bft) 97,87 %
24.05.2022 02:06 14,5 C 13,9 C 11,1 C 94 % 1002,3 hPa 0,0 l/m 0 min 0 min 0 W/m 16,1 km/h (3 Bft) 96,55 %
24.05.2022 02:08 14,5 C 13,9 C 11,1 C 94 % 1002,3 hPa 0,0 l/m 0 min 0 min 0 W/m 6,4 km/h (2 Bft) 98,00 %
24.05.2022 02:10 14,5 C 13,9 C 11,1 C 94 % 1002,2 hPa 0,0 l/m 0 min 0 min 0 W/m 16,1 km/h (3 Bft) 97,14 %
24.05.2022 02:12 14,4 C 13,9 C 11,1 C 94 % 1002,2 hPa 0,0 l/m 0 min 0 min 0 W/m 16,1 km/h (3 Bft) 97,87 %
24.05.2022 02:14 14,4 C 13,9 C 11,1 C 94 % 1002,2 hPa 0,0 l/m 0 min 0 min 0 W/m 12,9 km/h (3 Bft) 97,87 %
24.05.2022 02:16 14,5 C 13,9 C 11,1 C 94 % 1002,2 hPa 0,0 l/m 0 min 0 min 0 W/m 6,4 km/h (2 Bft) 97,87 %
24.05.2022 02:18 14,5 C 13,9 C 11,1 C 95 % 1002,2 hPa 0,0 l/m 0 min 0 min 0 W/m 12,9 km/h (3 Bft) 93,62 %
24.05.2022 02:20 14,5 C 13,9 C 11,1 C 95 % 1002,2 hPa 0,0 l/m 0 min 0 min 0 W/m 12,9 km/h (3 Bft) 95,65 %
24.05.2022 02:22 14,5 C 13,9 C 10,6 C 95 % 1002,1 hPa 0,0 l/m 0 min 0 min 0 W/m 9,7 km/h (2 Bft) 54,35 %
24.05.2022 02:24 14,5 C 13,9 C 10,6 C 95 % 1002,1 hPa 0,0 l/m 0 min 0 min 0 W/m 12,9 km/h (3 Bft) 97,87 %
24.05.2022 02:26 14,5 C 13,9 C 10,6 C 95 % 1002,1 hPa 0,0 l/m 0 min 0 min 0 W/m 12,9 km/h (3 Bft) 97,87 %
24.05.2022 02:28 14,5 C 13,9 C 10,6 C 95 % 1002,1 hPa 0,0 l/m 0 min 0 min 0 W/m 16,1 km/h (3 Bft) 97,87 %
24.05.2022 02:30 14,5 C 13,9 C 10,6 C 95 % 1002,1 hPa 0,0 l/m 0 min 0 min 0 W/m 12,9 km/h (3 Bft) 97,87 %
24.05.2022 02:32 14,5 C 13,9 C 10,6 C 95 % 1002,0 hPa 0,0 l/m 0 min 0 min 0 W/m 6,4 km/h (2 Bft) 97,83 %
24.05.2022 02:34 14,6 C 13,9 C 10,6 C 95 % 1002,0 hPa 0,0 l/m 0 min 0 min 0 W/m 6,4 km/h (2 Bft) 95,74 %
24.05.2022 02:36 14,6 C 13,9 C 10,6 C 95 % 1001,9 hPa 0,0 l/m 0 min 0 min 0 W/m 6,4 km/h (2 Bft) 100,00 %
24.05.2022 02:38 14,6 C 13,9 C 10,6 C 95 % 1001,9 hPa 0,0 l/m 0 min 0 min 0 W/m 6,4 km/h (2 Bft) 97,87 %
24.05.2022 02:40 14,6 C 13,9 C 10,6 C 95 % 1001,9 hPa 0,0 l/m 0 min 0 min 0 W/m 12,9 km/h (3 Bft) 100,00 %
24.05.2022 02:42 14,6 C 13,9 C 10,6 C 95 % 1001,9 hPa 0,0 l/m 0 min 0 min 0 W/m 6,4 km/h (2 Bft) 100,00 %
24.05.2022 02:44 14,6 C 13,9 C 10,6 C 95 % 1001,9 hPa 0,0 l/m 0 min 0 min 0 W/m 9,7 km/h (2 Bft) 97,83 %
24.05.2022 02:46 14,6 C 13,9 C 10,6 C 95 % 1001,9 hPa 0,0 l/m 0 min 0 min 0 W/m 9,7 km/h (2 Bft) 97,87 %
24.05.2022 02:48 14,6 C 13,9 C 10,6 C 95 % 1001,9 hPa 0,0 l/m 0 min 0 min 0 W/m 6,4 km/h (2 Bft) 97,87 %
24.05.2022 02:50 14,6 C 13,9 C 10,6 C 95 % 1001,8 hPa 0,0 l/m 0 min 0 min 0 W/m 12,9 km/h (3 Bft) 95,74 %
24.05.2022 02:52 14,6 C 13,9 C 10,6 C 95 % 1001,9 hPa 0,0 l/m 0 min 0 min 0 W/m 12,9 km/h (3 Bft) 97,87 %
24.05.2022 02:54 14,6 C 13,9 C 10,6 C 95 % 1001,9 hPa 0,0 l/m 0 min 0 min 0 W/m 16,1 km/h (3 Bft) 97,87 %
24.05.2022 02:56 14,5 C 13,9 C 10,6 C 95 % 1001,9 hPa 0,0 l/m 0 min 0 min 0 W/m 12,9 km/h (3 Bft) 97,83 %
24.05.2022 02:58 14,5 C 13,9 C 10,6 C 95 % 1001,9 hPa 0,0 l/m 0 min 0 min 0 W/m 6,4 km/h (2 Bft) 97,87 %
24.05.2022 03:00 14,6 C 13,9 C 10,6 C 95 % 1001,9 hPa 0,0 l/m 0 min 0 min 0 W/m 16,1 km/h (3 Bft) 97,87 %
24.05.2022 03:02 14,6 C 13,9 C 10,6 C 96 % 1001,9 hPa 0,0 l/m 0 min 0 min 0 W/m 9,7 km/h (2 Bft) 93,62 %
24.05.2022 03:04 14,5 C 13,9 C 10,6 C 96 % 1001,9 hPa 0,0 l/m 0 min 0 min 0 W/m 9,7 km/h (2 Bft) 95,74 %
24.05.2022 03:06 14,5 C 13,9 C 10,6 C 96 % 1001,9 hPa 0,0 l/m 0 min 0 min 0 W/m 16,1 km/h (3 Bft) 96,55 %
24.05.2022 03:08 14,5 C 13,9 C 10,6 C 96 % 1001,9 hPa 0,0 l/m 0 min 0 min 0 W/m 6,4 km/h (2 Bft) 97,87 %
24.05.2022 03:10 14,5 C 13,9 C 10,6 C 96 % 1001,9 hPa 0,0 l/m 0 min 0 min 0 W/m 6,4 km/h (2 Bft) 100,00 %
24.05.2022 03:12 14,5 C 13,9 C 10,6 C 96 % 1001,9 hPa 0,0 l/m 0 min 0 min 0 W/m 6,4 km/h (2 Bft) 100,00 %
24.05.2022 03:14 14,5 C 13,9 C 10,6 C 96 % 1002,0 hPa 0,0 l/m 0 min 0 min 0 W/m 9,7 km/h (2 Bft) 97,87 %
24.05.2022 03:16 14,5 C 13,9 C 10,6 C 96 % 1002,0 hPa 0,0 l/m 0 min 0 min 0 W/m 12,9 km/h (3 Bft) 97,87 %
24.05.2022 03:18 14,5 C 13,9 C 10,6 C 96 % 1002,1 hPa 0,0 l/m 0 min 0 min 0 W/m 6,4 km/h (2 Bft) 100,00 %
24.05.2022 03:20 14,5 C 13,9 C 10,6 C 96 % 1002,1 hPa 0,0 l/m 0 min 0 min 0 W/m 12,9 km/h (3 Bft) 100,00 %
24.05.2022 03:22 14,5 C 13,9 C 11,1 C 96 % 1002,1 hPa 0,0 l/m 0 min 0 min 0 W/m 6,4 km/h (2 Bft) 97,87 %
24.05.2022 03:24 14,4 C 13,9 C 11,1 C 96 % 1001,9 hPa 0,0 l/m 0 min 0 min 0 W/m 16,1 km/h (3 Bft) 100,00 %
24.05.2022 03:26 14,4 C 13,9 C 11,1 C 96 % 1001,9 hPa 0,0 l/m 0 min 0 min 0 W/m 12,9 km/h (3 Bft) 100,00 %
24.05.2022 03:28 14,4 C 13,9 C 11,1 C 96 % 1002,0 hPa 0,0 l/m 0 min 0 min 0 W/m 9,7 km/h (2 Bft) 100,00 %
24.05.2022 03:30 14,4 C 13,9 C 11,1 C 96 % 1002,0 hPa 0,0 l/m 0 min 0 min 0 W/m 12,9 km/h (3 Bft) 95,74 %
24.05.2022 03:32 14,4 C 13,9 C 11,1 C 96 % 1002,0 hPa 0,0 l/m 0 min 0 min 0 W/m 9,7 km/h (2 Bft) 97,83 %
24.05.2022 03:34 14,4 C 13,9 C 11,1 C 96 % 1002,1 hPa 0,0 l/m 0 min 0 min 0 W/m 12,9 km/h (3 Bft) 97,87 %
24.05.2022 03:36 14,3 C 13,9 C 11,1 C 96 % 1002,1 hPa 0,0 l/m 0 min 0 min 0 W/m 16,1 km/h (3 Bft) 98,31 %
24.05.2022 03:38 14,3 C 13,9 C 11,1 C 96 % 1002,1 hPa 0,0 l/m 0 min 0 min 0 W/m 6,4 km/h (2 Bft) 100,00 %
24.05.2022 03:40 14,3 C 13,9 C 11,1 C 96 % 1002,1 hPa 0,0 l/m 0 min 0 min 0 W/m 6,4 km/h (2 Bft) 97,14 %
24.05.2022 03:42 14,4 C 13,9 C 11,1 C 96 % 1002,1 hPa 0,0 l/m 0 min 0 min 0 W/m 6,4 km/h (2 Bft) 97,87 %
24.05.2022 03:44 14,3 C 13,9 C 11,1 C 96 % 1002,0 hPa 0,0 l/m 0 min 0 min 0 W/m 12,9 km/h (3 Bft) 97,83 %
24.05.2022 03:46 14,3 C 13,9 C 11,1 C 96 % 1002,0 hPa 0,0 l/m 0 min 0 min 0 W/m 12,9 km/h (3 Bft) 97,87 %
24.05.2022 03:48 14,3 C 13,9 C 11,1 C 96 % 1002,0 hPa 0,0 l/m 0 min 0 min 0 W/m 6,4 km/h (2 Bft) 96,61 %
24.05.2022 03:50 14,3 C 13,9 C 11,1 C 96 % 1002,0 hPa 0,0 l/m 0 min 0 min 0 W/m 25,7 km/h (4 Bft) 97,14 %
24.05.2022 03:52 14,3 C 13,9 C 11,1 C 95 % 1002,1 hPa 0,0 l/m 0 min 0 min 0 W/m 16,1 km/h (3 Bft) 95,74 %
24.05.2022 03:54 14,3 C 13,9 C 10,6 C 95 % 1002,0 hPa 0,0 l/m 0 min 0 min 0 W/m 16,1 km/h (3 Bft) 97,87 %
24.05.2022 03:56 14,2 C 13,9 C 10,6 C 95 % 1002,0 hPa 0,0 l/m 0 min 0 min 0 W/m 6,4 km/h (2 Bft) 97,83 %
24.05.2022 03:58 14,1 C 13,3 C 10,6 C 95 % 1002,0 hPa 0,0 l/m 0 min 0 min 0 W/m 9,7 km/h (2 Bft) 97,87 %
24.05.2022 04:00 14,1 C 13,3 C 10,6 C 94 % 1002,0 hPa 0,0 l/m 0 min 0 min 0 W/m 6,4 km/h (2 Bft) 97,87 %
24.05.2022 04:02 14,0 C 13,3 C 10,6 C 94 % 1002,0 hPa 0,0 l/m 0 min 0 min 0 W/m 12,9 km/h (3 Bft) 100,00 %
24.05.2022 04:04 13,9 C 13,3 C 10,6 C 94 % 1002,0 hPa 0,0 l/m 0 min 0 min 0 W/m 9,7 km/h (2 Bft) 97,87 %
24.05.2022 04:06 13,9 C 13,3 C 10,6 C 94 % 1002,0 hPa 0,0 l/m 0 min 0 min 0 W/m 6,4 km/h (2 Bft) 96,55 %
24.05.2022 04:08 13,8 C 13,3 C 10,6 C 94 % 1002,1 hPa 0,0 l/m 0 min 0 min 0 W/m 12,9 km/h (3 Bft) 97,14 %
24.05.2022 04:10 13,8 C 13,3 C 10,6 C 94 % 1002,0 hPa 0,0 l/m 0 min 0 min 0 W/m 12,9 km/h (3 Bft) 95,74 %
24.05.2022 04:12 13,8 C 13,3 C 10,0 C 94 % 1002,0 hPa 0,0 l/m 0 min 0 min 0 W/m 12,9 km/h (3 Bft) 97,87 %
24.05.2022 04:14 13,8 C 12,8 C 10,0 C 93 % 1002,0 hPa 0,0 l/m 0 min 0 min 0 W/m 12,9 km/h (3 Bft) 97,87 %
24.05.2022 04:16 13,8 C 12,8 C 10,0 C 93 % 1002,0 hPa 0,0 l/m 0 min 0 min 0 W/m 3,2 km/h (1 Bft) 97,87 %
24.05.2022 04:18 13,8 C 12,8 C 10,0 C 93 % 1002,0 hPa 0,0 l/m 0 min 0 min 0 W/m 3,2 km/h (1 Bft) 97,87 %
24.05.2022 04:20 13,7 C 12,8 C 10,0 C 93 % 1002,1 hPa 0,0 l/m 0 min 0 min 0 W/m 12,9 km/h (3 Bft) 97,83 %
24.05.2022 04:22 13,7 C 12,8 C 10,0 C 93 % 1002,1 hPa 0,0 l/m 0 min 0 min 0 W/m 12,9 km/h (3 Bft) 100,00 %
24.05.2022 04:24 13,7 C 12,8 C 10,0 C 93 % 1002,1 hPa 0,0 l/m 0 min 0 min 0 W/m 9,7 km/h (2 Bft) 95,74 %
24.05.2022 04:26 13,7 C 12,8 C 10,0 C 93 % 1002,2 hPa 0,0 l/m 0 min 0 min 0 W/m 16,1 km/h (3 Bft) 100,00 %
24.05.2022 04:28 13,6 C 12,8 C 10,0 C 93 % 1002,2 hPa 0,0 l/m 0 min 0 min 0 W/m 16,1 km/h (3 Bft) 97,87 %
24.05.2022 04:30 13,6 C 12,8 C 10,0 C 93 % 1002,2 hPa 0,0 l/m 0 min 0 min 0 W/m 19,3 km/h (3 Bft) 100,00 %
24.05.2022 04:32 13,5 C 12,8 C 10,0 C 93 % 1002,2 hPa 0,0 l/m 0 min 0 min 0 W/m 6,4 km/h (2 Bft) 97,83 %
24.05.2022 04:34 13,5 C 12,8 C 10,0 C 93 % 1002,1 hPa 0,0 l/m 0 min 0 min 0 W/m 6,4 km/h (2 Bft) 100,00 %
24.05.2022 04:36 13,4 C 12,8 C 10,0 C 92 % 1002,1 hPa 0,0 l/m 0 min 0 min 0 W/m 16,1 km/h (3 Bft) 96,61 %
24.05.2022 04:38 13,4 C 12,8 C 10,0 C 92 % 1002,2 hPa 0,0 l/m 0 min 0 min 0 W/m 16,1 km/h (3 Bft) 97,14 %
24.05.2022 04:40 13,3 C 12,8 C 10,0 C 92 % 1002,1 hPa 0,0 l/m 0 min 0 min 0 W/m 12,9 km/h (3 Bft) 95,74 %
24.05.2022 04:42 13,3 C 12,8 C 10,0 C 92 % 1002,1 hPa 0,0 l/m 0 min 0 min 0 W/m 12,9 km/h (3 Bft) 95,74 %
24.05.2022 04:44 13,3 C 12,8 C 10,0 C 92 % 1002,2 hPa 0,0 l/m 0 min 0 min 0 W/m 12,9 km/h (3 Bft) 93,48 %
24.05.2022 04:46 13,3 C 12,8 C 10,0 C 92 % 1002,2 hPa 0,0 l/m 0 min 0 min 0 W/m 12,9 km/h (3 Bft) 95,74 %
24.05.2022 04:48 13,3 C 12,8 C 10,0 C 92 % 1002,1 hPa 0,0 l/m 0 min 0 min 0 W/m 3,2 km/h (1 Bft) 95,74 %
24.05.2022 04:50 13,3 C 12,8 C 10,0 C 92 % 1002,0 hPa 0,0 l/m 0 min 0 min 0 W/m 12,9 km/h (3 Bft) 95,74 %
24.05.2022 04:52 13,3 C 12,8 C 10,0 C 92 % 1002,0 hPa 0,0 l/m 0 min 0 min 0 W/m 9,7 km/h (2 Bft) 93,62 %
24.05.2022 04:54 13,3 C 12,8 C 10,0 C 92 % 1001,9 hPa 0,0 l/m 0 min 0 min 0 W/m 6,4 km/h (2 Bft) 95,74 %
24.05.2022 04:56 13,3 C 12,8 C 10,0 C 92 % 1001,8 hPa 0,0 l/m 0 min 0 min 0 W/m 12,9 km/h (3 Bft) 93,48 %
24.05.2022 04:58 13,3 C 12,8 C 10,0 C 92 % 1001,8 hPa 0,0 l/m 0 min 0 min 0 W/m 3,2 km/h (1 Bft) 95,83 %
24.05.2022 05:00 13,3 C 12,8 C 10,0 C 92 % 1001,8 hPa 0,0 l/m 0 min 0 min 0 W/m 3,2 km/h (1 Bft) 95,65 %
24.05.2022 05:02 13,3 C 12,8 C 10,0 C 92 % 1001,7 hPa 0,0 l/m 0 min 0 min 0 W/m 6,4 km/h (2 Bft) 93,62 %
24.05.2022 05:04 13,3 C 12,8 C 10,0 C 92 % 1001,7 hPa 0,0 l/m 0 min 0 min 0 W/m 3,2 km/h (1 Bft) 93,62 %
24.05.2022 05:06 13,3 C 12,8 C 10,0 C 92 % 1001,7 hPa 0,0 l/m 0 min 0 min 0 W/m 3,2 km/h (1 Bft) 96,61 %
24.05.2022 05:08 13,2 C 12,8 C 10,0 C 92 % 1001,8 hPa 0,0 l/m 0 min 0 min 0 W/m 6,4 km/h (2 Bft) 97,14 %
24.05.2022 05:10 13,2 C 12,2 C 10,0 C 92 % 1001,8 hPa 0,0 l/m 0 min 0 min 0 W/m 3,2 km/h (1 Bft) 97,87 %
24.05.2022 05:12 13,2 C 12,2 C 10,0 C 92 % 1001,9 hPa 0,0 l/m 0 min 0 min 0 W/m 3,2 km/h (1 Bft) 97,83 %
24.05.2022 05:14 13,2 C 12,2 C 10,0 C 92 % 1001,9 hPa 0,0 l/m 0 min 0 min 0 W/m 9,7 km/h (2 Bft) 97,87 %
24.05.2022 05:16 13,1 C 12,2 C 10,0 C 91 % 1002,0 hPa 0,0 l/m 0 min 0 min 0 W/m 12,9 km/h (3 Bft) 97,87 %
24.05.2022 05:18 13,1 C 12,2 C 9,4 C 91 % 1001,9 hPa 0,0 l/m 0 min 0 min 0 W/m 12,9 km/h (3 Bft) 97,87 %
24.05.2022 05:20 13,1 C 12,2 C 9,4 C 91 % 1001,9 hPa 0,0 l/m 0 min 0 min 0 W/m 9,7 km/h (2 Bft) 100,00 %
24.05.2022 05:22 13,1 C 12,2 C 9,4 C 91 % 1001,9 hPa 0,0 l/m 0 min 0 min 0 W/m 6,4 km/h (2 Bft) 100,00 %
24.05.2022 05:24 13,1 C 12,2 C 9,4 C 91 % 1002,0 hPa 0,0 l/m 0 min 0 min 0 W/m 3,2 km/h (1 Bft) 100,00 %
24.05.2022 05:26 13,1 C 12,2 C 9,4 C 91 % 1002,0 hPa 0,0 l/m 0 min 0 min 0 W/m 6,4 km/h (2 Bft) 100,00 %
24.05.2022 05:28 13,1 C 12,2 C 9,4 C 91 % 1002,0 hPa 0,0 l/m 0 min 0 min 0 W/m 3,2 km/h (1 Bft) 100,00 %
24.05.2022 05:30 13,1 C 12,2 C 9,4 C 91 % 1001,9 hPa 0,0 l/m 0 min 0 min 0 W/m 9,7 km/h (2 Bft) 100,00 %
24.05.2022 05:32 13,1 C 12,2 C 9,4 C 91 % 1002,0 hPa 0,0 l/m 0 min 0 min 0 W/m 3,2 km/h (1 Bft) 100,00 %
24.05.2022 05:34 13,1 C 12,2 C 9,4 C 91 % 1001,9 hPa 0,0 l/m 0 min 0 min 0 W/m 9,7 km/h (2 Bft) 100,00 %
24.05.2022 05:36 13,1 C 12,2 C 9,4 C 91 % 1001,9 hPa 0,0 l/m 0 min 0 min 0 W/m 3,2 km/h (1 Bft) 100,00 %
24.05.2022 05:38 13,1 C 12,2 C 10,0 C 91 % 1001,9 hPa 0,0 l/m 0 min 0 min 0 W/m 3,2 km/h (1 Bft) 100,00 %
24.05.2022 05:40 13,1 C 12,2 C 10,0 C 91 % 1001,9 hPa 0,0 l/m 0 min 0 min 0 W/m 6,4 km/h (2 Bft) 100,00 %
24.05.2022 05:42 13,1 C 12,2 C 9,4 C 91 % 1002,0 hPa 0,0 l/m 0 min 0 min 0 W/m 9,7 km/h (2 Bft) 100,00 %
24.05.2022 05:44 13,1 C 12,2 C 9,4 C 91 % 1002,0 hPa 0,0 l/m 0 min 0 min 0 W/m 3,2 km/h (1 Bft) 100,00 %
24.05.2022 05:46 13,1 C 12,2 C 9,4 C 92 % 1002,0 hPa 0,0 l/m 0 min 0 min 0 W/m 12,9 km/h (3 Bft) 100,00 %
24.05.2022 05:48 13,1 C 12,2 C 9,4 C 92 % 1002,0 hPa 0,0 l/m 0 min 0 min 2 W/m 6,4 km/h (2 Bft) 100,00 %
24.05.2022 05:50 13,1 C 12,2 C 9,4 C 92 % 1002,0 hPa 0,0 l/m 0 min 0 min 5 W/m 12,9 km/h (3 Bft) 100,00 %
24.05.2022 05:52 13,1 C 12,2 C 9,4 C 92 % 1002,0 hPa 0,0 l/m 0 min 0 min 5 W/m 6,4 km/h (2 Bft) 100,00 %
24.05.2022 05:54 13,1 C 12,2 C 9,4 C 92 % 1002,1 hPa 0,0 l/m 0 min 0 min 6 W/m 16,1 km/h (3 Bft) 100,00 %
24.05.2022 05:56 13,1 C 12,2 C 9,4 C 92 % 1002,2 hPa 0,0 l/m 0 min 0 min 7 W/m 9,7 km/h (2 Bft) 97,87 %
24.05.2022 05:58 13,1 C 12,2 C 9,4 C 92 % 1002,1 hPa 0,0 l/m 0 min 0 min 8 W/m 6,4 km/h (2 Bft) 100,00 %
24.05.2022 06:00 13,1 C 12,2 C 9,4 C 92 % 1002,1 hPa 0,0 l/m 0 min 0 min 11 W/m 3,2 km/h (1 Bft) 100,00 %
24.05.2022 06:02 13,1 C 12,2 C 9,4 C 92 % 1002,1 hPa 0,0 l/m 0 min 0 min 12 W/m 9,7 km/h (2 Bft) 100,00 %
24.05.2022 06:04 13,1 C 12,2 C 9,4 C 92 % 1002,1 hPa 0,0 l/m 0 min 0 min 12 W/m 9,7 km/h (2 Bft) 100,00 %
24.05.2022 06:08 13,1 C 12,2 C 9,4 C 92 % 1002,3 hPa 0,0 l/m 0 min 0 min 12 W/m 12,9 km/h (3 Bft) 98,94 %
24.05.2022 06:10 13,1 C 12,8 C 9,4 C 92 % 1002,4 hPa 0,0 l/m 0 min 0 min 12 W/m 6,4 km/h (2 Bft) 100,00 %
24.05.2022 06:12 13,1 C 12,8 C 9,4 C 91 % 1002,5 hPa 0,0 l/m 0 min 0 min 11 W/m 12,9 km/h (3 Bft) 100,00 %
24.05.2022 06:14 13,1 C 12,8 C 9,4 C 91 % 1002,5 hPa 0,0 l/m 0 min 0 min 9 W/m 16,1 km/h (3 Bft) 100,00 %
24.05.2022 06:16 13,1 C 12,8 C 9,4 C 91 % 1002,5 hPa 0,0 l/m 0 min 0 min 8 W/m 6,4 km/h (2 Bft) 97,87 %
24.05.2022 06:18 13,1 C 12,8 C 9,4 C 91 % 1002,5 hPa 0,0 l/m 0 min 0 min 7 W/m 6,4 km/h (2 Bft) 100,00 %
24.05.2022 06:20 13,1 C 12,8 C 9,4 C 91 % 1002,5 hPa 0,0 l/m 0 min 0 min 7 W/m 12,9 km/h (3 Bft) 97,87 %
24.05.2022 06:22 13,1 C 12,8 C 9,4 C 91 % 1002,6 hPa 0,0 l/m 0 min 0 min 7 W/m 12,9 km/h (3 Bft) 100,00 %
24.05.2022 06:24 13,1 C 12,8 C 10,0 C 91 % 1002,7 hPa 0,0 l/m 0 min 0 min 7 W/m 9,7 km/h (2 Bft) 100,00 %
24.05.2022 06:26 13,1 C 12,8 C 9,4 C 91 % 1002,7 hPa 0,0 l/m 0 min 0 min 9 W/m 12,9 km/h (3 Bft) 97,87 %
24.05.2022 06:28 13,0 C 12,8 C 9,4 C 91 % 1002,7 hPa 0,0 l/m 0 min 0 min 8 W/m 6,4 km/h (2 Bft) 97,87 %
24.05.2022 06:30 13,0 C 12,2 C 9,4 C 91 % 1002,8 hPa 0,0 l/m 0 min 0 min 7 W/m 12,9 km/h (3 Bft) 95,74 %
24.05.2022 06:32 13,1 C 12,8 C 9,4 C 91 % 1002,9 hPa 0,0 l/m 0 min 0 min 7 W/m 16,1 km/h (3 Bft) 97,87 %
24.05.2022 06:34 13,1 C 12,8 C 9,4 C 90 % 1002,8 hPa 0,0 l/m 0 min 0 min 7 W/m 16,1 km/h (3 Bft) 97,83 %
24.05.2022 06:36 13,1 C 12,8 C 10,0 C 90 % 1002,8 hPa 0,0 l/m 0 min 0 min 7 W/m 9,7 km/h (2 Bft) 94,92 %
24.05.2022 06:38 13,1 C 12,8 C 10,0 C 90 % 1002,7 hPa 0,0 l/m 0 min 0 min 8 W/m 6,4 km/h (2 Bft) 97,14 %
24.05.2022 06:40 13,1 C 12,8 C 10,0 C 90 % 1002,7 hPa 0,0 l/m 0 min 0 min 9 W/m 6,4 km/h (2 Bft) 95,74 %
24.05.2022 06:42 13,1 C 12,8 C 10,0 C 90 % 1002,6 hPa 0,0 l/m 0 min 0 min 10 W/m 6,4 km/h (2 Bft) 93,62 %
24.05.2022 06:44 13,1 C 12,8 C 10,0 C 90 % 1002,6 hPa 0,0 l/m 0 min 0 min 14 W/m 16,1 km/h (3 Bft) 95,74 %
24.05.2022 06:46 13,1 C 12,8 C 9,4 C 90 % 1002,6 hPa 0,0 l/m 0 min 2 min 18 W/m 6,4 km/h (2 Bft) 95,74 %
24.05.2022 06:48 13,1 C 12,8 C 9,4 C 90 % 1002,7 hPa 0,0 l/m 0 min 2 min 20 W/m 6,4 km/h (2 Bft) 95,65 %
24.05.2022 06:50 13,2 C 12,8 C 9,4 C 90 % 1002,8 hPa 0,0 l/m 0 min 2 min 27 W/m 12,9 km/h (3 Bft) 95,74 %
24.05.2022 06:52 13,2 C 12,8 C 8,9 C 90 % 1002,8 hPa 0,0 l/m 0 min 2 min 32 W/m 16,1 km/h (3 Bft) 95,74 %
24.05.2022 06:54 13,2 C 12,8 C 8,9 C 90 % 1002,9 hPa 0,0 l/m 0 min 2 min 41 W/m 6,4 km/h (2 Bft) 95,74 %
24.05.2022 06:56 13,2 C 12,8 C 8,9 C 90 % 1003,0 hPa 0,0 l/m 0 min 2 min 43 W/m 12,9 km/h (3 Bft) 95,74 %
24.05.2022 06:58 13,2 C 12,8 C 8,9 C 90 % 1003,0 hPa 0,0 l/m 0 min 0 min 42 W/m 12,9 km/h (3 Bft) 95,74 %
24.05.2022 07:00 13,1 C 12,8 C 8,9 C 90 % 1003,0 hPa 0,0 l/m 0 min 2 min 41 W/m 16,1 km/h (3 Bft) 95,65 %
24.05.2022 07:02 13,1 C 12,8 C 8,9 C 90 % 1002,8 hPa 0,0 l/m 0 min 2 min 37 W/m 19,3 km/h (3 Bft) 97,87 %
24.05.2022 07:04 13,1 C 12,8 C 8,9 C 90 % 1003,0 hPa 0,0 l/m 0 min 2 min 33 W/m 12,9 km/h (3 Bft) 97,87 %
24.05.2022 07:06 13,1 C 12,2 C 8,9 C 90 % 1003,0 hPa 0,0 l/m 0 min 0 min 32 W/m 9,7 km/h (2 Bft) 97,87 %
24.05.2022 07:08 13,1 C 12,2 C 8,9 C 89 % 1003,1 hPa 0,0 l/m 0 min 0 min 30 W/m 16,1 km/h (3 Bft) 97,96 %
24.05.2022 07:10 13,0 C 12,2 C 8,9 C 89 % 1003,3 hPa 0,0 l/m 0 min 0 min 27 W/m 16,1 km/h (3 Bft) 95,65 %
24.05.2022 07:12 12,9 C 12,2 C 8,9 C 89 % 1003,3 hPa 0,0 l/m 0 min 2 min 25 W/m 16,1 km/h (3 Bft) 97,87 %
24.05.2022 07:14 12,9 C 12,2 C 8,9 C 89 % 1003,3 hPa 0,0 l/m 0 min 2 min 25 W/m 9,7 km/h (2 Bft) 97,87 %
24.05.2022 07:16 12,9 C 12,2 C 8,9 C 89 % 1003,3 hPa 0,0 l/m 0 min 2 min 25 W/m 16,1 km/h (3 Bft) 93,62 %
24.05.2022 07:18 12,9 C 12,2 C 8,9 C 89 % 1003,3 hPa 0,0 l/m 0 min 2 min 25 W/m 12,9 km/h (3 Bft) 95,74 %
24.05.2022 07:20 12,9 C 12,2 C 8,9 C 89 % 1003,4 hPa 0,0 l/m 0 min 2 min 24 W/m 9,7 km/h (2 Bft) 95,74 %
24.05.2022 07:22 12,9 C 12,2 C 8,9 C 89 % 1003,4 hPa 0,0 l/m 0 min 2 min 23 W/m 9,7 km/h (2 Bft) 95,65 %
24.05.2022 07:24 12,8 C 12,2 C 8,9 C 89 % 1003,5 hPa 0,2 l/m 0 min 0 min 23 W/m 12,9 km/h (3 Bft) 93,62 %
24.05.2022 07:26 12,8 C 12,2 C 8,9 C 89 % 1003,4 hPa 0,0 l/m 0 min 2 min 23 W/m 16,1 km/h (3 Bft) 97,87 %
24.05.2022 07:28 12,8 C 12,2 C 8,9 C 89 % 1003,5 hPa 0,0 l/m 0 min 2 min 22 W/m 19,3 km/h (3 Bft) 97,87 %
24.05.2022 07:30 12,8 C 12,2 C 8,9 C 89 % 1003,6 hPa 0,0 l/m 0 min 2 min 19 W/m 12,9 km/h (3 Bft) 97,87 %
24.05.2022 07:32 12,8 C 12,2 C 8,9 C 89 % 1003,6 hPa 0,0 l/m 0 min 2 min 19 W/m 16,1 km/h (3 Bft) 97,87 %
24.05.2022 07:34 12,7 C 12,2 C 8,3 C 89 % 1003,6 hPa 0,0 l/m 0 min 2 min 19 W/m 16,1 km/h (3 Bft) 95,65 %
24.05.2022 07:36 12,7 C 12,2 C 8,3 C 89 % 1003,7 hPa 0,0 l/m 0 min 2 min 19 W/m 16,1 km/h (3 Bft) 97,87 %
24.05.2022 07:38 12,7 C 12,2 C 8,3 C 89 % 1003,8 hPa 0,0 l/m 0 min 2 min 19 W/m 16,1 km/h (3 Bft) 97,87 %
24.05.2022 07:40 12,7 C 12,2 C 8,3 C 89 % 1003,8 hPa 0,0 l/m 0 min 2 min 18 W/m 19,3 km/h (3 Bft) 95,74 %
24.05.2022 07:42 12,6 C 11,7 C 8,3 C 89 % 1003,9 hPa 0,0 l/m 0 min 2 min 18 W/m 19,3 km/h (3 Bft) 93,62 %
24.05.2022 07:44 12,6 C 11,7 C 8,3 C 90 % 1003,9 hPa 0,0 l/m 0 min 2 min 19 W/m 12,9 km/h (3 Bft) 97,87 %
24.05.2022 07:46 12,6 C 11,7 C 7,8 C 90 % 1004,0 hPa 0,0 l/m 0 min 2 min 23 W/m 16,1 km/h (3 Bft) 97,83 %
24.05.2022 07:48 12,6 C 11,7 C 7,8 C 90 % 1004,0 hPa 0,0 l/m 0 min 2 min 23 W/m 19,3 km/h (3 Bft) 95,74 %
24.05.2022 07:50 12,5 C 11,7 C 7,8 C 90 % 1003,8 hPa 0,0 l/m 0 min 0 min 23 W/m 12,9 km/h (3 Bft) 97,87 %
24.05.2022 07:52 12,4 C 11,7 C 7,8 C 90 % 1003,9 hPa 0,0 l/m 0 min 0 min 21 W/m 16,1 km/h (3 Bft) 97,87 %
24.05.2022 07:54 12,4 C 11,7 C 7,8 C 90 % 1003,9 hPa 0,0 l/m 0 min 2 min 21 W/m 6,4 km/h (2 Bft) 97,87 %
24.05.2022 07:56 12,4 C 11,7 C 7,8 C 90 % 1003,9 hPa 0,2 l/m 0 min 2 min 19 W/m 6,4 km/h (2 Bft) 97,87 %
24.05.2022 07:58 12,4 C 11,7 C 7,8 C 91 % 1003,9 hPa 0,0 l/m 0 min 2 min 20 W/m 12,9 km/h (3 Bft) 97,83 %
24.05.2022 08:00 12,3 C 11,7 C 7,8 C 91 % 1004,1 hPa 0,0 l/m 0 min 2 min 24 W/m 25,7 km/h (4 Bft) 100,00 %
24.05.2022 08:02 12,3 C 11,7 C 7,8 C 90 % 1004,1 hPa 0,0 l/m 0 min 2 min 26 W/m 19,3 km/h (3 Bft) 100,00 %
24.05.2022 08:04 12,2 C 11,7 C 7,8 C 90 % 1004,1 hPa 0,0 l/m 0 min 2 min 26 W/m 19,3 km/h (3 Bft) 95,74 %
24.05.2022 08:06 12,2 C 11,7 C 7,8 C 91 % 1004,2 hPa 0,0 l/m 0 min 2 min 26 W/m 29,0 km/h (5 Bft) 100,00 %
24.05.2022 08:08 12,1 C 11,7 C 7,8 C 91 % 1004,2 hPa 0,0 l/m 0 min 2 min 25 W/m 22,5 km/h (4 Bft) 100,00 %
24.05.2022 08:10 12,1 C 11,7 C 7,8 C 91 % 1004,2 hPa 0,0 l/m 0 min 2 min 25 W/m 19,3 km/h (3 Bft) 97,83 %
24.05.2022 08:12 12,1 C 11,7 C 7,8 C 91 % 1004,3 hPa 0,0 l/m 0 min 2 min 26 W/m 16,1 km/h (3 Bft) 97,87 %
24.05.2022 08:14 12,1 C 11,7 C 7,8 C 91 % 1004,3 hPa 0,0 l/m 0 min 2 min 26 W/m 12,9 km/h (3 Bft) 100,00 %
24.05.2022 08:16 12,1 C 11,7 C 7,8 C 91 % 1004,3 hPa 0,0 l/m 0 min 2 min 28 W/m 16,1 km/h (3 Bft) 97,87 %
24.05.2022 08:18 12,1 C 11,7 C 7,8 C 91 % 1004,4 hPa 0,0 l/m 0 min 2 min 31 W/m 22,5 km/h (4 Bft) 97,87 %
24.05.2022 08:20 12,1 C 11,7 C 7,8 C 91 % 1004,3 hPa 0,0 l/m 0 min 2 min 34 W/m 12,9 km/h (3 Bft) 97,87 %
24.05.2022 08:22 12,1 C 11,7 C 7,8 C 91 % 1004,3 hPa 0,0 l/m 0 min 2 min 39 W/m 19,3 km/h (3 Bft) 97,83 %
24.05.2022 08:24 12,1 C 11,7 C 7,2 C 91 % 1004,4 hPa 0,0 l/m 0 min 2 min 47 W/m 25,7 km/h (4 Bft) 95,74 %
24.05.2022 08:26 12,1 C 11,7 C 7,8 C 91 % 1004,4 hPa 0,0 l/m 0 min 0 min 54 W/m 12,9 km/h (3 Bft) 97,87 %
24.05.2022 08:28 12,1 C 11,7 C 7,8 C 91 % 1004,4 hPa 0,0 l/m 0 min 0 min 53 W/m 16,1 km/h (3 Bft) 97,87 %
24.05.2022 08:30 12,1 C 11,7 C 7,8 C 92 % 1004,4 hPa 0,0 l/m 0 min 0 min 50 W/m 22,5 km/h (4 Bft) 97,87 %
24.05.2022 08:32 12,1 C 11,7 C 7,8 C 92 % 1004,4 hPa 0,0 l/m 0 min 0 min 47 W/m 12,9 km/h (3 Bft) 97,87 %
24.05.2022 08:34 12,1 C 11,7 C 7,8 C 92 % 1004,4 hPa 0,0 l/m 0 min 0 min 46 W/m 9,7 km/h (2 Bft) 97,83 %
24.05.2022 08:36 12,1 C 11,7 C 7,8 C 92 % 1004,5 hPa 0,0 l/m 0 min 2 min 44 W/m 16,1 km/h (3 Bft) 97,87 %
24.05.2022 08:38 12,1 C 11,7 C 7,8 C 92 % 1004,5 hPa 0,0 l/m 0 min 2 min 45 W/m 19,3 km/h (3 Bft) 97,87 %
24.05.2022 08:40 12,1 C 11,7 C 7,8 C 92 % 1004,4 hPa 0,0 l/m 0 min 2 min 52 W/m 22,5 km/h (4 Bft) 97,87 %
24.05.2022 08:42 12,1 C 11,7 C 7,8 C 92 % 1004,5 hPa 0,0 l/m 0 min 0 min 68 W/m 9,7 km/h (2 Bft) 97,87 %
24.05.2022 08:44 12,1 C 11,7 C 7,8 C 92 % 1004,5 hPa 0,0 l/m 0 min 0 min 96 W/m 12,9 km/h (3 Bft) 97,87 %
24.05.2022 08:46 12,2 C 11,7 C 7,8 C 92 % 1004,6 hPa 0,0 l/m 0 min 0 min 122 W/m 19,3 km/h (3 Bft) 97,83 %
24.05.2022 08:48 12,2 C 12,2 C 7,8 C 92 % 1004,6 hPa 0,0 l/m 0 min 0 min 140 W/m 16,1 km/h (3 Bft) 100,00 %
24.05.2022 08:50 12,2 C 12,2 C 7,8 C 92 % 1004,6 hPa 0,0 l/m 0 min 0 min 165 W/m 16,1 km/h (3 Bft) 97,87 %
24.05.2022 08:52 12,3 C 12,2 C 8,3 C 92 % 1004,7 hPa 0,0 l/m 0 min 0 min 178 W/m 22,5 km/h (4 Bft) 100,00 %
24.05.2022 08:54 12,3 C 12,2 C 8,3 C 92 % 1004,7 hPa 0,0 l/m 0 min 0 min 176 W/m 19,3 km/h (3 Bft) 97,87 %
24.05.2022 08:56 12,4 C 12,8 C 8,3 C 93 % 1004,7 hPa 0,0 l/m 0 min 0 min 181 W/m 25,7 km/h (4 Bft) 100,00 %
24.05.2022 08:58 12,4 C 12,8 C 8,3 C 93 % 1004,7 hPa 0,0 l/m 0 min 0 min 188 W/m 16,1 km/h (3 Bft) 100,00 %
24.05.2022 09:00 12,5 C 12,8 C 8,9 C 93 % 1004,8 hPa 0,0 l/m 0 min 0 min 190 W/m 29,0 km/h (5 Bft) 100,00 %
24.05.2022 09:02 12,5 C 12,8 C 8,3 C 93 % 1004,8 hPa 0,0 l/m 0 min 0 min 186 W/m 19,3 km/h (3 Bft) 100,00 %
24.05.2022 09:04 12,5 C 12,8 C 8,9 C 92 % 1004,8 hPa 0,0 l/m 0 min 0 min 189 W/m 19,3 km/h (3 Bft) 100,00 %
24.05.2022 09:06 12,6 C 12,8 C 8,9 C 92 % 1004,8 hPa 0,0 l/m 0 min 0 min 198 W/m 19,3 km/h (3 Bft) 97,87 %
24.05.2022 09:08 12,6 C 12,8 C 8,9 C 92 % 1004,8 hPa 0,0 l/m 0 min 0 min 182 W/m 12,9 km/h (3 Bft) 100,00 %
24.05.2022 09:10 12,6 C 12,8 C 8,9 C 92 % 1004,9 hPa 0,0 l/m 0 min 0 min 192 W/m 22,5 km/h (4 Bft) 100,00 %
24.05.2022 09:12 12,7 C 13,3 C 8,9 C 92 % 1004,9 hPa 0,0 l/m 0 min 0 min 197 W/m 19,3 km/h (3 Bft) 97,87 %
24.05.2022 09:14 12,7 C 12,8 C 8,9 C 92 % 1004,9 hPa 0,0 l/m 0 min 0 min 180 W/m 22,5 km/h (4 Bft) 100,00 %
24.05.2022 09:16 12,7 C 12,8 C 8,9 C 92 % 1005,0 hPa 0,0 l/m 0 min 0 min 180 W/m 22,5 km/h (4 Bft) 100,00 %
24.05.2022 09:18 12,7 C 13,3 C 8,9 C 91 % 1005,1 hPa 0,0 l/m 0 min 0 min 201 W/m 22,5 km/h (4 Bft) 100,00 %
24.05.2022 09:20 12,8 C 13,3 C 8,9 C 91 % 1005,1 hPa 0,0 l/m 0 min 0 min 173 W/m 16,1 km/h (3 Bft) 100,00 %
24.05.2022 09:22 12,8 C 13,3 C 8,9 C 91 % 1005,1 hPa 0,0 l/m 0 min 0 min 225 W/m 22,5 km/h (4 Bft) 100,00 %
24.05.2022 09:24 12,8 C 13,9 C 9,4 C 91 % 1005,1 hPa 0,0 l/m 2 min 0 min 330 W/m 19,3 km/h (3 Bft) 100,00 %
24.05.2022 09:26 12,9 C 13,9 C 10,0 C 91 % 1005,1 hPa 0,0 l/m 2 min 0 min 327 W/m 22,5 km/h (4 Bft) 97,87 %
24.05.2022 09:28 12,9 C 13,9 C 10,0 C 90 % 1005,2 hPa 0,0 l/m 0 min 0 min 240 W/m 22,5 km/h (4 Bft) 100,00 %
24.05.2022 09:30 12,9 C 13,9 C 10,0 C 90 % 1005,2 hPa 0,0 l/m 0 min 0 min 257 W/m 32,2 km/h (5 Bft) 100,00 %
24.05.2022 09:32 13,1 C 13,9 C 10,6 C 90 % 1005,1 hPa 0,0 l/m 0 min 0 min 259 W/m 22,5 km/h (4 Bft) 97,83 %
24.05.2022 09:34 13,1 C 13,9 C 10,6 C 89 % 1005,1 hPa 0,0 l/m 0 min 0 min 253 W/m 29,0 km/h (5 Bft) 97,87 %
24.05.2022 09:36 13,2 C 14,4 C 10,6 C 89 % 1005,1 hPa 0,0 l/m 0 min 0 min 255 W/m 22,5 km/h (4 Bft) 97,87 %
24.05.2022 09:38 13,2 C 14,4 C 11,1 C 89 % 1005,2 hPa 0,0 l/m 2 min 0 min 657 W/m 22,5 km/h (4 Bft) 100,00 %
24.05.2022 09:40 13,3 C 15,0 C 11,1 C 88 % 1005,2 hPa 0,0 l/m 2 min 0 min 642 W/m 41,8 km/h (6 Bft) 100,00 %
24.05.2022 09:42 13,4 C 14,4 C 11,1 C 88 % 1005,2 hPa 0,0 l/m 2 min 0 min 642 W/m 51,5 km/h (7 Bft) 97,87 %
24.05.2022 09:44 13,5 C 15,0 C 11,7 C 87 % 1005,2 hPa 0,0 l/m 2 min 0 min 642 W/m 29,0 km/h (5 Bft) 97,83 %
24.05.2022 09:46 13,6 C 15,6 C 12,2 C 87 % 1005,2 hPa 0,0 l/m 2 min 0 min 646 W/m 22,5 km/h (4 Bft) 93,62 %
24.05.2022 09:48 13,7 C 15,6 C 12,2 C 87 % 1005,3 hPa 0,0 l/m 2 min 0 min 659 W/m 19,3 km/h (3 Bft) 97,87 %
24.05.2022 09:50 13,8 C 15,6 C 12,8 C 86 % 1005,2 hPa 0,0 l/m 2 min 0 min 642 W/m 32,2 km/h (5 Bft) 97,87 %
24.05.2022 09:52 13,9 C 16,7 C 12,8 C 86 % 1005,2 hPa 0,0 l/m 2 min 0 min 639 W/m 16,1 km/h (3 Bft) 95,74 %
24.05.2022 09:54 14,1 C 16,7 C 12,8 C 86 % 1005,4 hPa 0,0 l/m 2 min 0 min 721 W/m 16,1 km/h (3 Bft) 97,87 %
24.05.2022 09:56 14,1 C 16,1 C 12,8 C 85 % 1005,3 hPa 0,0 l/m 2 min 0 min 733 W/m 29,0 km/h (5 Bft) 95,65 %
24.05.2022 09:58 14,2 C 16,1 C 13,3 C 85 % 1005,3 hPa 0,0 l/m 2 min 0 min 639 W/m 25,7 km/h (4 Bft) 95,74 %
24.05.2022 10:00 14,3 C 16,1 C 13,3 C 84 % 1005,3 hPa 0,0 l/m 2 min 0 min 392 W/m 16,1 km/h (3 Bft) 97,87 %
24.05.2022 10:02 14,3 C 16,7 C 13,9 C 84 % 1005,2 hPa 0,0 l/m 2 min 0 min 686 W/m 22,5 km/h (4 Bft) 93,62 %
24.05.2022 10:04 14,4 C 17,8 C 14,4 C 85 % 1005,2 hPa 0,0 l/m 2 min 0 min 770 W/m 16,1 km/h (3 Bft) 95,74 %
24.05.2022 10:06 14,6 C 17,8 C 14,4 C 85 % 1005,2 hPa 0,0 l/m 2 min 0 min 767 W/m 12,9 km/h (3 Bft) 93,62 %
24.05.2022 10:08 14,7 C 17,2 C 13,9 C 83 % 1005,2 hPa 0,0 l/m 0 min 0 min 309 W/m 16,1 km/h (3 Bft) 93,48 %
24.05.2022 10:10 14,8 C 16,7 C 13,9 C 83 % 1005,3 hPa 0,0 l/m 0 min 0 min 297 W/m 22,5 km/h (4 Bft) 91,49 %
24.05.2022 10:12 14,8 C 16,1 C 13,3 C 82 % 1005,2 hPa 0,0 l/m 0 min 0 min 238 W/m 19,3 km/h (3 Bft) 93,62 %
24.05.2022 10:14 14,8 C 15,6 C 12,2 C 81 % 1005,3 hPa 0,0 l/m 0 min 0 min 168 W/m 22,5 km/h (4 Bft) 93,62 %
24.05.2022 10:16 14,8 C 15,6 C 12,8 C 81 % 1005,2 hPa 0,0 l/m 0 min 0 min 186 W/m 25,7 km/h (4 Bft) 93,88 %
24.05.2022 10:18 14,8 C 15,6 C 12,8 C 80 % 1005,3 hPa 0,0 l/m 0 min 0 min 186 W/m 22,5 km/h (4 Bft) 93,62 %
24.05.2022 10:20 14,8 C 15,0 C 12,8 C 81 % 1005,2 hPa 0,0 l/m 0 min 0 min 181 W/m 29,0 km/h (5 Bft) 95,74 %
24.05.2022 10:22 14,8 C 15,0 C 12,2 C 80 % 1005,3 hPa 0,0 l/m 0 min 0 min 194 W/m 19,3 km/h (3 Bft) 93,62 %
24.05.2022 10:24 14,8 C 15,0 C 12,2 C 80 % 1005,4 hPa 0,0 l/m 0 min 0 min 244 W/m 16,1 km/h (3 Bft) 93,62 %
24.05.2022 10:26 14,8 C 15,6 C 13,3 C 81 % 1005,4 hPa 0,0 l/m 2 min 0 min 651 W/m 19,3 km/h (3 Bft) 95,74 %
24.05.2022 10:28 14,9 C 15,6 C 13,3 C 81 % 1005,4 hPa 0,0 l/m 2 min 0 min 891 W/m 19,3 km/h (3 Bft) 95,65 %
24.05.2022 10:30 15,0 C 15,6 C 12,8 C 80 % 1005,5 hPa 0,0 l/m 0 min 0 min 242 W/m 22,5 km/h (4 Bft) 95,74 %
24.05.2022 10:32 14,9 C 15,0 C 12,2 C 80 % 1005,5 hPa 0,0 l/m 0 min 0 min 126 W/m 19,3 km/h (3 Bft) 91,49 %
24.05.2022 10:34 14,8 C 14,4 C 11,7 C 79 % 1005,5 hPa 0,0 l/m 0 min 0 min 102 W/m 25,7 km/h (4 Bft) 95,74 %
24.05.2022 10:36 14,8 C 14,4 C 11,7 C 80 % 1005,5 hPa 0,0 l/m 0 min 0 min 88 W/m 9,7 km/h (2 Bft) 93,62 %
24.05.2022 10:38 14,7 C 14,4 C 11,1 C 80 % 1005,6 hPa 0,0 l/m 0 min 0 min 113 W/m 19,3 km/h (3 Bft) 95,74 %
24.05.2022 10:40 14,6 C 14,4 C 11,1 C 80 % 1005,5 hPa 0,0 l/m 0 min 0 min 159 W/m 25,7 km/h (4 Bft) 97,83 %
24.05.2022 10:42 14,5 C 14,4 C 11,1 C 79 % 1005,6 hPa 0,0 l/m 0 min 0 min 183 W/m 32,2 km/h (5 Bft) 95,74 %
24.05.2022 10:44 14,3 C 13,9 C 11,1 C 78 % 1005,7 hPa 0,0 l/m 0 min 0 min 177 W/m 29,0 km/h (5 Bft) 97,87 %
24.05.2022 10:46 14,3 C 14,4 C 11,1 C 79 % 1005,7 hPa 0,0 l/m 0 min 0 min 223 W/m 12,9 km/h (3 Bft) 97,87 %
24.05.2022 10:48 14,4 C 15,6 C 11,7 C 80 % 1005,7 hPa 0,0 l/m 0 min 0 min 329 W/m 22,5 km/h (4 Bft) 97,87 %
24.05.2022 10:50 14,7 C 15,6 C 12,2 C 80 % 1005,6 hPa 0,0 l/m 2 min 0 min 969 W/m 19,3 km/h (3 Bft) 97,87 %
24.05.2022 10:52 14,8 C 15,6 C 12,2 C 79 % 1005,7 hPa 0,0 l/m 0 min 0 min 336 W/m 29,0 km/h (5 Bft) 97,83 %
24.05.2022 10:54 14,9 C 15,6 C 12,2 C 78 % 1005,6 hPa 0,0 l/m 0 min 0 min 289 W/m 32,2 km/h (5 Bft) 97,87 %
24.05.2022 10:56 14,9 C 15,6 C 12,2 C 78 % 1005,7 hPa 0,0 l/m 0 min 0 min 232 W/m 29,0 km/h (5 Bft) 97,87 %
24.05.2022 10:58 15,0 C 15,0 C 12,2 C 78 % 1005,7 hPa 0,0 l/m 0 min 0 min 136 W/m 19,3 km/h (3 Bft) 97,87 %
24.05.2022 11:00 15,0 C 15,0 C 11,7 C 77 % 1005,8 hPa 0,0 l/m 0 min 0 min 84 W/m 19,3 km/h (3 Bft) 97,87 %
24.05.2022 11:02 14,9 C 14,4 C 11,7 C 77 % 1005,8 hPa 0,0 l/m 0 min 0 min 60 W/m 29,0 km/h (5 Bft) 93,62 %
24.05.2022 11:04 14,9 C 14,4 C 11,1 C 77 % 1005,8 hPa 0,0 l/m 0 min 0 min 71 W/m 16,1 km/h (3 Bft) 95,65 %
24.05.2022 11:06 14,9 C 14,4 C 11,1 C 78 % 1005,9 hPa 0,0 l/m 0 min 0 min 127 W/m 25,7 km/h (4 Bft) 97,87 %
24.05.2022 11:08 14,9 C 14,4 C 11,1 C 78 % 1005,9 hPa 0,0 l/m 0 min 0 min 195 W/m 19,3 km/h (3 Bft) 97,87 %
24.05.2022 11:10 14,8 C 14,4 C 11,1 C 78 % 1005,9 hPa 0,0 l/m 0 min 0 min 203 W/m 22,5 km/h (4 Bft) 95,74 %
24.05.2022 11:12 14,8 C 15,0 C 11,7 C 78 % 1005,9 hPa 0,0 l/m 0 min 0 min 223 W/m 19,3 km/h (3 Bft) 97,87 %
24.05.2022 11:14 14,8 C 15,0 C 11,7 C 78 % 1006,0 hPa 0,0 l/m 0 min 0 min 202 W/m 25,7 km/h (4 Bft) 100,00 %
24.05.2022 11:16 14,9 C 15,0 C 11,7 C 77 % 1006,0 hPa 0,0 l/m 0 min 0 min 196 W/m 25,7 km/h (4 Bft) 100,00 %
24.05.2022 11:18 14,9 C 15,0 C 11,7 C 77 % 1006,1 hPa 0,0 l/m 0 min 0 min 181 W/m 19,3 km/h (3 Bft) 100,00 %
24.05.2022 11:20 14,9 C 15,0 C 11,7 C 77 % 1006,0 hPa 0,0 l/m 0 min 0 min 200 W/m 16,1 km/h (3 Bft) 100,00 %
24.05.2022 11:22 14,9 C 15,0 C 11,7 C 77 % 1006,1 hPa 0,0 l/m 0 min 0 min 225 W/m 12,9 km/h (3 Bft) 100,00 %
24.05.2022 11:24 14,9 C 15,0 C 11,7 C 77 % 1006,1 hPa 0,0 l/m 0 min 0 min 273 W/m 19,3 km/h (3 Bft) 100,00 %
24.05.2022 11:26 15,0 C 15,6 C 12,2 C 78 % 1006,1 hPa 0,0 l/m 0 min 0 min 304 W/m 9,7 km/h (2 Bft) 100,00 %
24.05.2022 11:28 15,1 C 15,6 C 12,2 C 78 % 1006,0 hPa 0,0 l/m 0 min 0 min 217 W/m 16,1 km/h (3 Bft) 100,00 %
24.05.2022 11:30 15,2 C 15,6 C 12,2 C 77 % 1006,0 hPa 0,0 l/m 0 min 0 min 200 W/m 16,1 km/h (3 Bft) 100,00 %
24.05.2022 11:32 15,3 C 16,1 C 12,2 C 75 % 1006,0 hPa 0,0 l/m 0 min 0 min 261 W/m 25,7 km/h (4 Bft) 97,87 %
24.05.2022 11:34 15,4 C 16,1 C 12,2 C 75 % 1006,0 hPa 0,0 l/m 0 min 0 min 346 W/m 19,3 km/h (3 Bft) 100,00 %
24.05.2022 11:36 15,5 C 16,1 C 12,2 C 75 % 1006,3 hPa 0,0 l/m 0 min 0 min 247 W/m 22,5 km/h (4 Bft) 95,74 %
24.05.2022 11:38 15,6 C 15,6 C 12,2 C 74 % 1006,2 hPa 0,0 l/m 0 min 0 min 179 W/m 22,5 km/h (4 Bft) 100,00 %
24.05.2022 11:40 15,5 C 15,0 C 11,7 C 74 % 1006,2 hPa 0,0 l/m 0 min 0 min 155 W/m 32,2 km/h (5 Bft) 100,00 %
24.05.2022 11:42 15,4 C 15,0 C 11,7 C 74 % 1006,3 hPa 0,0 l/m 0 min 0 min 134 W/m 16,1 km/h (3 Bft) 97,87 %
24.05.2022 11:44 15,4 C 15,6 C 12,2 C 75 % 1006,3 hPa 0,0 l/m 0 min 0 min 208 W/m 16,1 km/h (3 Bft) 97,87 %
24.05.2022 11:46 15,6 C 17,2 C 12,8 C 76 % 1006,3 hPa 0,0 l/m 2 min 0 min 577 W/m 12,9 km/h (3 Bft) 100,00 %
24.05.2022 11:48 15,8 C 17,8 C 13,3 C 77 % 1006,4 hPa 0,0 l/m 2 min 0 min 979 W/m 29,0 km/h (5 Bft) 100,00 %
24.05.2022 11:50 15,9 C 17,2 C 13,3 C 75 % 1006,4 hPa 0,0 l/m 2 min 0 min 742 W/m 22,5 km/h (4 Bft) 100,00 %
24.05.2022 11:52 16,0 C 16,7 C 12,8 C 74 % 1006,5 hPa 0,0 l/m 0 min 0 min 297 W/m 35,4 km/h (5 Bft) 100,00 %
24.05.2022 11:54 15,9 C 16,7 C 12,8 C 73 % 1006,4 hPa 0,0 l/m 0 min 0 min 312 W/m 32,2 km/h (5 Bft) 100,00 %
24.05.2022 11:56 15,9 C 16,7 C 13,3 C 73 % 1006,5 hPa 0,0 l/m 0 min 0 min 343 W/m 19,3 km/h (3 Bft) 100,00 %
24.05.2022 11:58 16,1 C 17,2 C 13,9 C 74 % 1006,4 hPa 0,0 l/m 2 min 0 min 813 W/m 25,7 km/h (4 Bft) 100,00 %
24.05.2022 12:00 16,2 C 17,2 C 13,9 C 73 % 1006,6 hPa 0,0 l/m 2 min 0 min 717 W/m 38,6 km/h (5 Bft) 97,87 %
24.05.2022 12:02 16,2 C 17,8 C 14,4 C 73 % 1006,5 hPa 0,0 l/m 0 min 0 min 389 W/m 29,0 km/h (5 Bft) 100,00 %
24.05.2022 12:04 16,4 C 17,8 C 15,0 C 72 % 1006,5 hPa 0,0 l/m 2 min 0 min 445 W/m 25,7 km/h (4 Bft) 97,83 %
24.05.2022 12:08 16,7 C 18,9 C 17,8 C 71 % 1006,4 hPa 0,0 l/m 4 min 0 min 1131 W/m 29,0 km/h (5 Bft) 97,73 %
24.05.2022 12:10 16,9 C 18,9 C 18,9 C 70 % 1006,6 hPa 0,0 l/m 2 min 0 min 1005 W/m 22,5 km/h (4 Bft) 96,61 %
24.05.2022 12:12 17,1 C 18,9 C 18,9 C 70 % 1006,6 hPa 0,0 l/m 2 min 0 min 1041 W/m 41,8 km/h (6 Bft) 97,87 %
24.05.2022 12:14 17,2 C 18,3 C 17,2 C 69 % 1006,6 hPa 0,0 l/m 2 min 0 min 560 W/m 16,1 km/h (3 Bft) 97,14 %
24.05.2022 12:16 17,2 C 17,8 C 16,1 C 69 % 1006,7 hPa 0,0 l/m 0 min 0 min 364 W/m 19,3 km/h (3 Bft) 96,55 %
24.05.2022 12:18 17,1 C 17,2 C 15,0 C 68 % 1006,6 hPa 0,0 l/m 0 min 0 min 302 W/m 19,3 km/h (3 Bft) 95,74 %
24.05.2022 12:20 16,9 C 16,7 C 13,9 C 69 % 1006,6 hPa 0,0 l/m 0 min 0 min 233 W/m 22,5 km/h (4 Bft) 95,74 %
24.05.2022 12:22 16,8 C 16,7 C 13,9 C 68 % 1006,7 hPa 0,0 l/m 0 min 0 min 227 W/m 19,3 km/h (3 Bft) 95,74 %
24.05.2022 12:24 16,6 C 16,7 C 13,3 C 69 % 1006,6 hPa 0,0 l/m 0 min 0 min 218 W/m 22,5 km/h (4 Bft) 93,62 %
24.05.2022 12:26 16,5 C 16,1 C 13,3 C 68 % 1006,6 hPa 0,0 l/m 0 min 0 min 186 W/m 19,3 km/h (3 Bft) 97,14 %
24.05.2022 12:28 16,4 C 16,1 C 12,8 C 69 % 1006,6 hPa 0,0 l/m 0 min 0 min 121 W/m 19,3 km/h (3 Bft) 94,83 %
24.05.2022 12:30 16,4 C 16,1 C 12,8 C 69 % 1006,5 hPa 0,0 l/m 0 min 0 min 101 W/m 16,1 km/h (3 Bft) 94,44 %
24.05.2022 12:32 16,3 C 15,6 C 12,2 C 70 % 1006,6 hPa 0,0 l/m 0 min 0 min 82 W/m 29,0 km/h (5 Bft) 95,65 %
24.05.2022 12:34 16,3 C 15,6 C 11,7 C 71 % 1006,7 hPa 0,0 l/m 0 min 0 min 79 W/m 12,9 km/h (3 Bft) 96,61 %
24.05.2022 12:36 16,2 C 15,6 C 11,7 C 72 % 1006,7 hPa 0,0 l/m 0 min 2 min 113 W/m 19,3 km/h (3 Bft) 95,74 %
24.05.2022 12:38 16,1 C 15,6 C 11,7 C 72 % 1006,8 hPa 0,0 l/m 0 min 0 min 169 W/m 16,1 km/h (3 Bft) 95,74 %
24.05.2022 12:40 16,1 C 16,1 C 12,2 C 72 % 1006,8 hPa 0,0 l/m 0 min 0 min 286 W/m 16,1 km/h (3 Bft) 94,29 %
24.05.2022 12:42 16,1 C 16,1 C 13,3 C 71 % 1006,8 hPa 0,0 l/m 2 min 0 min 425 W/m 19,3 km/h (3 Bft) 96,55 %
24.05.2022 12:44 16,2 C 16,7 C 13,3 C 71 % 1006,7 hPa 0,0 l/m 0 min 0 min 385 W/m 22,5 km/h (4 Bft) 100,00 %
24.05.2022 12:46 16,2 C 16,7 C 13,3 C 70 % 1006,8 hPa 0,0 l/m 0 min 0 min 317 W/m 19,3 km/h (3 Bft) 96,61 %
24.05.2022 12:48 16,2 C 16,7 C 13,3 C 70 % 1006,9 hPa 0,0 l/m 0 min 0 min 265 W/m 19,3 km/h (3 Bft) 97,14 %
24.05.2022 12:50 16,3 C 16,7 C 13,3 C 70 % 1006,8 hPa 0,0 l/m 0 min 0 min 228 W/m 16,1 km/h (3 Bft) 98,31 %
24.05.2022 12:52 16,3 C 16,1 C 12,8 C 70 % 1006,8 hPa 0,0 l/m 0 min 0 min 210 W/m 19,3 km/h (3 Bft) 97,14 %
24.05.2022 12:54 16,2 C 16,7 C 13,3 C 70 % 1006,9 hPa 0,0 l/m 0 min 0 min 254 W/m 25,7 km/h (4 Bft) 97,87 %
24.05.2022 12:56 16,2 C 16,7 C 14,4 C 71 % 1006,9 hPa 0,0 l/m 0 min 0 min 393 W/m 25,7 km/h (4 Bft) 98,28 %
24.05.2022 12:58 16,3 C 17,2 C 15,6 C 71 % 1006,9 hPa 0,0 l/m 2 min 0 min 547 W/m 22,5 km/h (4 Bft) 97,14 %
24.05.2022 13:00 16,5 C 17,8 C 15,0 C 71 % 1006,8 hPa 0,0 l/m 2 min 0 min 485 W/m 16,1 km/h (3 Bft) 96,61 %
24.05.2022 13:02 16,6 C 17,8 C 15,0 C 71 % 1007,0 hPa 0,0 l/m 2 min 0 min 455 W/m 19,3 km/h (3 Bft) 100,00 %
24.05.2022 13:04 16,7 C 17,2 C 14,4 C 70 % 1006,9 hPa 0,0 l/m 2 min 0 min 436 W/m 29,0 km/h (5 Bft) 97,87 %
24.05.2022 13:06 16,7 C 17,2 C 14,4 C 69 % 1006,8 hPa 0,0 l/m 2 min 0 min 420 W/m 29,0 km/h (5 Bft) 100,00 %
24.05.2022 13:08 16,7 C 17,8 C 15,0 C 70 % 1006,9 hPa 0,0 l/m 0 min 0 min 399 W/m 16,1 km/h (3 Bft) 100,00 %
24.05.2022 13:10 16,9 C 18,3 C 16,1 C 70 % 1006,8 hPa 0,0 l/m 0 min 0 min 399 W/m 19,3 km/h (3 Bft) 100,00 %
24.05.2022 13:12 17,1 C 18,9 C 16,7 C 69 % 1006,8 hPa 0,0 l/m 0 min 0 min 399 W/m 35,4 km/h (5 Bft) 97,87 %
24.05.2022 13:14 17,3 C 19,4 C 16,7 C 69 % 1006,9 hPa 0,0 l/m 2 min 0 min 924 W/m 25,7 km/h (4 Bft) 97,87 %
24.05.2022 13:16 17,6 C 19,4 C 16,1 C 69 % 1007,0 hPa 0,0 l/m 2 min 0 min 968 W/m 25,7 km/h (4 Bft) 100,00 %
24.05.2022 13:18 17,6 C 18,9 C 16,1 C 67 % 1006,9 hPa 0,0 l/m 2 min 0 min 919 W/m 25,7 km/h (4 Bft) 100,00 %
24.05.2022 13:20 17,6 C 18,3 C 16,1 C 66 % 1007,0 hPa 0,0 l/m 2 min 0 min 840 W/m 22,5 km/h (4 Bft) 100,00 %
24.05.2022 13:22 17,5 C 18,3 C 16,7 C 66 % 1007,0 hPa 0,0 l/m 2 min 0 min 840 W/m 16,1 km/h (3 Bft) 100,00 %
24.05.2022 13:24 17,6 C 18,9 C 18,9 C 68 % 1007,1 hPa 0,0 l/m 2 min 0 min 980 W/m 19,3 km/h (3 Bft) 100,00 %
24.05.2022 13:26 17,7 C 19,4 C 20,0 C 67 % 1007,0 hPa 0,0 l/m 2 min 0 min 1005 W/m 19,3 km/h (3 Bft) 100,00 %
24.05.2022 13:28 17,8 C 19,4 C 20,6 C 67 % 1007,0 hPa 0,0 l/m 2 min 0 min 991 W/m 19,3 km/h (3 Bft) 100,00 %
24.05.2022 13:30 17,8 C 19,4 C 21,1 C 67 % 1007,0 hPa 0,0 l/m 2 min 0 min 967 W/m 16,1 km/h (3 Bft) 100,00 %
24.05.2022 13:32 18,1 C 20,6 C 22,2 C 68 % 1007,0 hPa 0,0 l/m 2 min 0 min 989 W/m 19,3 km/h (3 Bft) 100,00 %
24.05.2022 13:34 18,1 C 20,0 C 22,8 C 65 % 1007,1 hPa 0,0 l/m 2 min 0 min 997 W/m 29,0 km/h (5 Bft) 100,00 %
24.05.2022 13:36 18,2 C 20,6 C 23,3 C 65 % 1007,1 hPa 0,0 l/m 2 min 0 min 989 W/m 22,5 km/h (4 Bft) 100,00 %
24.05.2022 13:38 18,3 C 20,0 C 22,2 C 67 % 1007,0 hPa 0,0 l/m 2 min 0 min 958 W/m 16,1 km/h (3 Bft) 100,00 %
24.05.2022 13:40 18,4 C 20,6 C 22,2 C 67 % 1007,0 hPa 0,0 l/m 2 min 0 min 996 W/m 16,1 km/h (3 Bft) 100,00 %
24.05.2022 13:42 18,6 C 20,6 C 21,7 C 66 % 1007,0 hPa 0,0 l/m 2 min 0 min 1106 W/m 22,5 km/h (4 Bft) 100,00 %
24.05.2022 13:44 18,6 C 20,6 C 21,7 C 66 % 1007,1 hPa 0,0 l/m 2 min 0 min 935 W/m 29,0 km/h (5 Bft) 100,00 %
24.05.2022 13:46 18,6 C 20,6 C 21,7 C 66 % 1007,1 hPa 0,0 l/m 2 min 0 min 969 W/m 22,5 km/h (4 Bft) 100,00 %
24.05.2022 13:48 18,7 C 21,1 C 21,1 C 65 % 1007,0 hPa 0,0 l/m 2 min 0 min 1070 W/m 19,3 km/h (3 Bft) 97,87 %
24.05.2022 13:50 18,7 C 20,0 C 18,9 C 65 % 1007,2 hPa 0,0 l/m 2 min 0 min 699 W/m 29,0 km/h (5 Bft) 100,00 %
24.05.2022 13:52 18,7 C 20,6 C 18,3 C 65 % 1007,1 hPa 0,0 l/m 2 min 0 min 538 W/m 16,1 km/h (3 Bft) 100,00 %
24.05.2022 13:54 18,8 C 21,1 C 18,3 C 66 % 1007,1 hPa 0,0 l/m 2 min 0 min 1070 W/m 22,5 km/h (4 Bft) 100,00 %
24.05.2022 13:56 19,0 C 21,1 C 17,8 C 66 % 1007,1 hPa 0,0 l/m 2 min 0 min 762 W/m 19,3 km/h (3 Bft) 97,83 %
24.05.2022 13:58 19,0 C 21,1 C 17,2 C 64 % 1007,2 hPa 0,0 l/m 2 min 0 min 610 W/m 22,5 km/h (4 Bft) 100,00 %
24.05.2022 14:00 19,1 C 20,6 C 16,7 C 65 % 1007,2 hPa 0,0 l/m 2 min 0 min 1174 W/m 32,2 km/h (5 Bft) 100,00 %
24.05.2022 14:02 18,9 C 20,0 C 16,1 C 64 % 1007,1 hPa 0,0 l/m 2 min 0 min 1075 W/m 29,0 km/h (5 Bft) 100,00 %
24.05.2022 14:04 18,8 C 19,4 C 16,1 C 65 % 1007,1 hPa 0,0 l/m 2 min 0 min 666 W/m 22,5 km/h (4 Bft) 100,00 %
24.05.2022 14:06 18,7 C 18,9 C 15,6 C 64 % 1007,2 hPa 0,0 l/m 2 min 0 min 521 W/m 19,3 km/h (3 Bft) 98,28 %
24.05.2022 14:08 18,6 C 18,3 C 15,6 C 66 % 1007,3 hPa 0,0 l/m 0 min 0 min 286 W/m 29,0 km/h (5 Bft) 100,00 %
24.05.2022 14:10 18,3 C 18,3 C 15,0 C 68 % 1007,3 hPa 0,0 l/m 0 min 0 min 325 W/m 35,4 km/h (5 Bft) 97,92 %
24.05.2022 14:12 18,0 C 18,3 C 14,4 C 70 % 1007,4 hPa 0,0 l/m 0 min 0 min 332 W/m 22,5 km/h (4 Bft) 97,87 %
24.05.2022 14:14 17,9 C 18,9 C 15,0 C 71 % 1007,5 hPa 0,0 l/m 2 min 0 min 458 W/m 25,7 km/h (4 Bft) 95,74 %
24.05.2022 14:16 17,8 C 18,9 C 15,0 C 69 % 1007,5 hPa 0,0 l/m 2 min 0 min 854 W/m 22,5 km/h (4 Bft) 95,74 %
24.05.2022 14:18 17,6 C 18,9 C 15,0 C 68 % 1007,5 hPa 0,0 l/m 2 min 0 min 494 W/m 25,7 km/h (4 Bft) 91,49 %
24.05.2022 14:20 17,6 C 19,4 C 15,0 C 67 % 1007,5 hPa 0,0 l/m 2 min 0 min 584 W/m 19,3 km/h (3 Bft) 93,48 %
24.05.2022 14:22 17,7 C 20,0 C 15,0 C 66 % 1007,6 hPa 0,0 l/m 2 min 0 min 945 W/m 16,1 km/h (3 Bft) 91,49 %
24.05.2022 14:24 17,9 C 20,6 C 15,0 C 67 % 1007,5 hPa 0,0 l/m 2 min 0 min 933 W/m 16,1 km/h (3 Bft) 93,62 %
24.05.2022 14:26 18,1 C 20,6 C 15,0 C 64 % 1007,6 hPa 0,0 l/m 2 min 0 min 934 W/m 16,1 km/h (3 Bft) 95,74 %
24.05.2022 14:28 18,3 C 20,6 C 14,4 C 64 % 1007,5 hPa 0,0 l/m 2 min 0 min 905 W/m 16,1 km/h (3 Bft) 95,74 %
24.05.2022 14:30 18,4 C 21,1 C 15,0 C 63 % 1007,7 hPa 0,0 l/m 2 min 0 min 969 W/m 19,3 km/h (3 Bft) 93,62 %
24.05.2022 14:32 18,5 C 21,1 C 15,0 C 64 % 1007,6 hPa 0,0 l/m 2 min 0 min 997 W/m 16,1 km/h (3 Bft) 95,65 %
24.05.2022 14:34 18,5 C 20,0 C 15,0 C 63 % 1007,6 hPa 0,0 l/m 2 min 0 min 997 W/m 38,6 km/h (5 Bft) 95,74 %
24.05.2022 14:36 18,4 C 19,4 C 15,0 C 63 % 1007,7 hPa 0,0 l/m 2 min 0 min 737 W/m 19,3 km/h (3 Bft) 95,74 %
24.05.2022 14:38 18,2 C 19,4 C 15,0 C 62 % 1007,7 hPa 0,0 l/m 2 min 0 min 483 W/m 25,7 km/h (4 Bft) 97,87 %
24.05.2022 14:40 18,2 C 20,0 C 15,0 C 63 % 1007,6 hPa 0,0 l/m 2 min 0 min 698 W/m 29,0 km/h (5 Bft) 95,74 %
24.05.2022 14:42 18,3 C 20,6 C 15,0 C 62 % 1007,7 hPa 0,0 l/m 2 min 0 min 953 W/m 32,2 km/h (5 Bft) 97,87 %
24.05.2022 14:44 18,3 C 20,6 C 15,0 C 62 % 1007,6 hPa 0,0 l/m 2 min 0 min 851 W/m 38,6 km/h (5 Bft) 97,83 %
24.05.2022 14:46 18,4 C 21,1 C 15,0 C 64 % 1007,6 hPa 0,0 l/m 2 min 0 min 933 W/m 19,3 km/h (3 Bft) 97,87 %
24.05.2022 14:48 18,6 C 21,1 C 15,0 C 63 % 1007,6 hPa 0,0 l/m 2 min 0 min 939 W/m 22,5 km/h (4 Bft) 95,74 %
24.05.2022 14:50 18,7 C 21,7 C 15,0 C 64 % 1007,5 hPa 0,0 l/m 2 min 0 min 954 W/m 16,1 km/h (3 Bft) 95,74 %
24.05.2022 14:52 18,9 C 22,2 C 15,6 C 64 % 1007,5 hPa 0,0 l/m 2 min 0 min 955 W/m 19,3 km/h (3 Bft) 95,74 %
24.05.2022 14:54 19,0 C 21,7 C 15,6 C 63 % 1007,6 hPa 0,0 l/m 2 min 0 min 1011 W/m 45,1 km/h (6 Bft) 91,49 %
24.05.2022 14:56 18,9 C 20,6 C 15,0 C 61 % 1007,6 hPa 0,0 l/m 2 min 0 min 1042 W/m 32,2 km/h (5 Bft) 95,65 %
24.05.2022 14:58 18,9 C 21,1 C 15,0 C 63 % 1007,6 hPa 0,0 l/m 2 min 0 min 1042 W/m 16,1 km/h (3 Bft) 95,74 %
24.05.2022 15:00 19,1 C 21,7 C 15,6 C 64 % 1007,6 hPa 0,0 l/m 2 min 0 min 1072 W/m 16,1 km/h (3 Bft) 95,74 %
24.05.2022 15:02 19,1 C 21,1 C 15,6 C 62 % 1007,6 hPa 0,0 l/m 2 min 0 min 907 W/m 48,3 km/h (6 Bft) 95,74 %
24.05.2022 15:04 19,1 C 20,0 C 15,6 C 62 % 1007,7 hPa 0,0 l/m 0 min 0 min 330 W/m 29,0 km/h (5 Bft) 93,62 %
24.05.2022 15:06 19,0 C 19,4 C 15,6 C 61 % 1007,6 hPa 0,0 l/m 0 min 0 min 178 W/m 19,3 km/h (3 Bft) 93,62 %
24.05.2022 15:08 18,8 C 18,3 C 15,0 C 63 % 1007,7 hPa 0,0 l/m 0 min 0 min 105 W/m 16,1 km/h (3 Bft) 95,65 %
24.05.2022 15:10 18,6 C 17,8 C 14,4 C 63 % 1007,8 hPa 0,0 l/m 0 min 0 min 69 W/m 19,3 km/h (3 Bft) 95,74 %
24.05.2022 15:12 18,3 C 17,2 C 13,9 C 65 % 1007,9 hPa 0,0 l/m 0 min 0 min 47 W/m 29,0 km/h (5 Bft) 95,74 %
24.05.2022 15:14 17,8 C 16,1 C 12,8 C 68 % 1007,9 hPa 0,0 l/m 0 min 2 min 61 W/m 16,1 km/h (3 Bft) 95,74 %
24.05.2022 15:16 17,3 C 15,0 C 11,7 C 71 % 1008,1 hPa 0,0 l/m 0 min 2 min 72 W/m 22,5 km/h (4 Bft) 93,62 %
24.05.2022 15:18 16,6 C 14,4 C 11,1 C 73 % 1008,1 hPa 0,0 l/m 0 min 2 min 90 W/m 19,3 km/h (3 Bft) 97,87 %
24.05.2022 15:20 16,2 C 14,4 C 11,1 C 75 % 1008,2 hPa 0,0 l/m 0 min 2 min 126 W/m 12,9 km/h (3 Bft) 95,65 %
24.05.2022 15:22 15,8 C 14,4 C 11,7 C 78 % 1008,3 hPa 0,0 l/m 0 min 0 min 187 W/m 12,9 km/h (3 Bft) 93,62 %
24.05.2022 15:24 15,6 C 14,4 C 11,7 C 79 % 1008,3 hPa 0,0 l/m 0 min 0 min 227 W/m 16,1 km/h (3 Bft) 95,74 %
24.05.2022 15:26 15,4 C 15,0 C 11,7 C 79 % 1008,3 hPa 0,0 l/m 0 min 0 min 308 W/m 12,9 km/h (3 Bft) 91,49 %
24.05.2022 15:28 15,3 C 15,6 C 11,7 C 80 % 1008,2 hPa 0,0 l/m 0 min 0 min 357 W/m 9,7 km/h (2 Bft) 97,87 %
24.05.2022 15:30 15,4 C 17,2 C 11,7 C 81 % 1008,2 hPa 0,0 l/m 2 min 0 min 719 W/m 12,9 km/h (3 Bft) 97,83 %
24.05.2022 15:32 15,6 C 18,3 C 12,2 C 81 % 1008,2 hPa 0,0 l/m 2 min 0 min 921 W/m 9,7 km/h (2 Bft) 97,87 %
24.05.2022 15:34 15,7 C 18,9 C 12,2 C 80 % 1008,1 hPa 0,0 l/m 2 min 0 min 887 W/m 9,7 km/h (2 Bft) 100,00 %
24.05.2022 15:36 15,9 C 19,4 C 12,2 C 79 % 1008,0 hPa 0,0 l/m 2 min 0 min 889 W/m 6,4 km/h (2 Bft) 98,31 %
24.05.2022 15:38 16,1 C 19,4 C 12,8 C 78 % 1008,1 hPa 0,0 l/m 2 min 0 min 893 W/m 12,9 km/h (3 Bft) 100,00 %
24.05.2022 15:40 16,2 C 18,3 C 12,8 C 75 % 1008,1 hPa 0,0 l/m 2 min 0 min 479 W/m 9,7 km/h (2 Bft) 100,00 %
24.05.2022 15:42 16,2 C 17,2 C 12,8 C 75 % 1008,2 hPa 0,0 l/m 0 min 0 min 183 W/m 12,9 km/h (3 Bft) 100,00 %
24.05.2022 15:44 16,2 C 16,7 C 12,8 C 74 % 1008,1 hPa 0,0 l/m 0 min 0 min 164 W/m 12,9 km/h (3 Bft) 100,00 %
24.05.2022 15:46 16,2 C 16,7 C 12,8 C 73 % 1008,1 hPa 0,0 l/m 0 min 0 min 140 W/m 6,4 km/h (2 Bft) 100,00 %
24.05.2022 15:48 16,3 C 16,1 C 12,8 C 73 % 1008,2 hPa 0,0 l/m 0 min 0 min 115 W/m 6,4 km/h (2 Bft) 100,00 %
24.05.2022 15:50 16,3 C 16,1 C 12,8 C 74 % 1008,2 hPa 0,0 l/m 0 min 0 min 100 W/m 12,9 km/h (3 Bft) 100,00 %
24.05.2022 15:52 16,2 C 16,1 C 12,8 C 73 % 1008,3 hPa 0,0 l/m 0 min 0 min 94 W/m 12,9 km/h (3 Bft) 100,00 %
24.05.2022 15:54 16,2 C 16,1 C 12,2 C 73 % 1008,4 hPa 0,0 l/m 0 min 2 min 96 W/m 9,7 km/h (2 Bft) 100,00 %
24.05.2022 15:56 16,2 C 15,6 C 11,7 C 77 % 1008,4 hPa 0,0 l/m 0 min 2 min 103 W/m 6,4 km/h (2 Bft) 100,00 %
24.05.2022 15:58 16,2 C 15,6 C 11,1 C 77 % 1008,4 hPa 0,2 l/m 0 min 2 min 117 W/m 9,7 km/h (2 Bft) 100,00 %
24.05.2022 16:00 16,1 C 15,6 C 10,6 C 79 % 1008,3 hPa 0,0 l/m 0 min 2 min 132 W/m 3,2 km/h (1 Bft) 100,00 %
24.05.2022 16:02 16,1 C 15,6 C 10,6 C 79 % 1008,3 hPa 0,0 l/m 0 min 2 min 155 W/m 12,9 km/h (3 Bft) 100,00 %
24.05.2022 16:04 15,9 C 16,1 C 10,6 C 79 % 1008,3 hPa 0,0 l/m 0 min 2 min 211 W/m 9,7 km/h (2 Bft) 100,00 %
24.05.2022 16:06 15,9 C 16,1 C 10,6 C 80 % 1008,3 hPa 0,0 l/m 0 min 0 min 298 W/m 12,9 km/h (3 Bft) 100,00 %
24.05.2022 16:08 15,9 C 16,1 C 10,6 C 81 % 1008,2 hPa 0,0 l/m 0 min 0 min 308 W/m 6,4 km/h (2 Bft) 97,14 %
24.05.2022 16:10 16,0 C 16,7 C 11,1 C 81 % 1008,2 hPa 0,0 l/m 0 min 0 min 298 W/m 6,4 km/h (2 Bft) 95,74 %
24.05.2022 16:12 16,1 C 16,7 C 11,1 C 81 % 1008,3 hPa 0,0 l/m 0 min 0 min 327 W/m 6,4 km/h (2 Bft) 93,62 %
24.05.2022 16:14 16,1 C 16,7 C 11,7 C 80 % 1008,2 hPa 0,0 l/m 2 min 0 min 358 W/m 6,4 km/h (2 Bft) 97,87 %
24.05.2022 16:16 16,2 C 17,8 C 11,7 C 80 % 1008,3 hPa 0,0 l/m 2 min 0 min 484 W/m 6,4 km/h (2 Bft) 97,87 %
24.05.2022 16:18 16,3 C 18,3 C 12,2 C 80 % 1008,2 hPa 0,0 l/m 2 min 0 min 575 W/m 12,9 km/h (3 Bft) 97,83 %
24.05.2022 16:20 16,4 C 17,8 C 12,8 C 80 % 1008,3 hPa 0,0 l/m 0 min 0 min 329 W/m 12,9 km/h (3 Bft) 97,87 %
24.05.2022 16:22 16,4 C 17,2 C 12,8 C 78 % 1008,4 hPa 0,0 l/m 0 min 0 min 186 W/m 12,9 km/h (3 Bft) 97,87 %
24.05.2022 16:24 16,4 C 16,7 C 12,8 C 77 % 1008,4 hPa 0,0 l/m 0 min 0 min 164 W/m 16,1 km/h (3 Bft) 97,87 %
24.05.2022 16:26 16,5 C 16,7 C 12,8 C 77 % 1008,5 hPa 0,0 l/m 0 min 0 min 171 W/m 6,4 km/h (2 Bft) 97,87 %
24.05.2022 16:28 16,4 C 16,7 C 12,8 C 76 % 1008,5 hPa 0,0 l/m 0 min 0 min 170 W/m 9,7 km/h (2 Bft) 97,87 %
24.05.2022 16:30 16,4 C 16,7 C 12,8 C 75 % 1008,7 hPa 0,0 l/m 0 min 0 min 148 W/m 16,1 km/h (3 Bft) 97,83 %
24.05.2022 16:32 16,4 C 16,1 C 12,8 C 74 % 1008,7 hPa 0,0 l/m 0 min 0 min 128 W/m 19,3 km/h (3 Bft) 97,87 %
24.05.2022 16:34 16,3 C 16,1 C 12,8 C 73 % 1008,8 hPa 0,0 l/m 0 min 0 min 120 W/m 19,3 km/h (3 Bft) 97,87 %
24.05.2022 16:36 16,2 C 15,6 C 12,2 C 72 % 1009,0 hPa 0,0 l/m 0 min 0 min 117 W/m 25,7 km/h (4 Bft) 97,87 %
24.05.2022 16:40 15,8 C 15,0 C 11,7 C 72 % 1009,0 hPa 0,0 l/m 0 min 4 min 110 W/m 35,4 km/h (5 Bft) 100,00 %
24.05.2022 16:45 15,4 C 14,4 C 10,6 C 76 % 1009,2 hPa 0,0 l/m 0 min 5 min 95 W/m 25,7 km/h (4 Bft) 100,00 %
24.05.2022 16:50 15,1 C 14,4 C 9,4 C 79 % 1009,1 hPa 0,2 l/m 0 min 5 min 178 W/m 19,3 km/h (3 Bft) 100,00 %
24.05.2022 16:55 14,8 C 16,1 C 10,0 C 80 % 1009,1 hPa 0,0 l/m 5 min 0 min 373 W/m 16,1 km/h (3 Bft) 100,00 %
24.05.2022 17:00 15,1 C 17,2 C 11,1 C 82 % 1009,2 hPa 0,0 l/m 5 min 0 min 389 W/m 9,7 km/h (2 Bft) 100,00 %
24.05.2022 17:05 15,4 C 19,4 C 12,2 C 78 % 1009,2 hPa 0,0 l/m 5 min 0 min 703 W/m 19,3 km/h (3 Bft) 100,00 %
24.05.2022 17:08 15,7 C 20,0 C 12,8 C 77 % 1009,1 hPa 0,0 l/m 3 min 0 min 637 W/m 12,9 km/h (3 Bft) 97,69 %
24.05.2022 17:10 15,8 C 20,0 C 12,8 C 75 % 1009,1 hPa 0,0 l/m 2 min 0 min 585 W/m 12,9 km/h (3 Bft) 100,00 %
24.05.2022 17:12 16,0 C 20,6 C 12,8 C 75 % 1009,1 hPa 0,0 l/m 2 min 0 min 619 W/m 12,9 km/h (3 Bft) 100,00 %
24.05.2022 17:14 16,2 C 21,1 C 13,3 C 73 % 1009,1 hPa 0,0 l/m 2 min 0 min 631 W/m 6,4 km/h (2 Bft) 97,83 %
24.05.2022 17:16 16,3 C 20,6 C 13,3 C 73 % 1009,1 hPa 0,0 l/m 2 min 0 min 648 W/m 12,9 km/h (3 Bft) 100,00 %
24.05.2022 17:18 16,5 C 21,1 C 13,3 C 71 % 1009,1 hPa 0,0 l/m 2 min 0 min 694 W/m 6,4 km/h (2 Bft) 100,00 %
24.05.2022 17:20 16,7 C 22,2 C 13,3 C 71 % 1009,0 hPa 0,0 l/m 2 min 0 min 649 W/m 6,4 km/h (2 Bft) 100,00 %
24.05.2022 17:22 16,8 C 22,8 C 13,9 C 71 % 1009,1 hPa 0,0 l/m 2 min 0 min 680 W/m 16,1 km/h (3 Bft) 100,00 %
24.05.2022 17:24 17,1 C 22,8 C 13,9 C 69 % 1009,0 hPa 0,0 l/m 2 min 0 min 697 W/m 16,1 km/h (3 Bft) 100,00 %
24.05.2022 17:26 17,2 C 21,1 C 13,9 C 68 % 1009,1 hPa 0,0 l/m 2 min 0 min 719 W/m 16,1 km/h (3 Bft) 100,00 %
24.05.2022 17:28 17,2 C 19,4 C 13,9 C 68 % 1009,1 hPa 0,0 l/m 2 min 0 min 405 W/m 19,3 km/h (3 Bft) 100,00 %
24.05.2022 17:30 17,2 C 18,9 C 13,9 C 68 % 1009,2 hPa 0,0 l/m 0 min 0 min 224 W/m 9,7 km/h (2 Bft) 97,87 %
24.05.2022 17:32 17,2 C 17,8 C 13,3 C 68 % 1009,1 hPa 0,0 l/m 0 min 0 min 219 W/m 6,4 km/h (2 Bft) 100,00 %
24.05.2022 17:34 17,2 C 17,8 C 13,3 C 68 % 1009,1 hPa 0,0 l/m 0 min 0 min 210 W/m 12,9 km/h (3 Bft) 97,87 %
24.05.2022 17:36 17,2 C 17,2 C 13,3 C 69 % 1009,1 hPa 0,0 l/m 0 min 0 min 222 W/m 16,1 km/h (3 Bft) 97,87 %
24.05.2022 17:38 17,2 C 17,2 C 13,3 C 69 % 1009,1 hPa 0,0 l/m 0 min 0 min 239 W/m 16,1 km/h (3 Bft) 97,83 %
24.05.2022 17:40 17,1 C 17,2 C 13,3 C 69 % 1009,1 hPa 0,0 l/m 0 min 0 min 220 W/m 12,9 km/h (3 Bft) 95,74 %
24.05.2022 17:42 17,1 C 16,7 C 13,3 C 70 % 1009,1 hPa 0,0 l/m 0 min 0 min 204 W/m 12,9 km/h (3 Bft) 95,74 %
24.05.2022 17:44 17,1 C 17,2 C 13,3 C 70 % 1009,1 hPa 0,0 l/m 0 min 0 min 205 W/m 9,7 km/h (2 Bft) 97,87 %
24.05.2022 17:46 17,1 C 17,2 C 13,3 C 70 % 1009,1 hPa 0,0 l/m 0 min 0 min 217 W/m 6,4 km/h (2 Bft) 97,87 %
24.05.2022 17:48 17,1 C 17,2 C 13,3 C 71 % 1009,2 hPa 0,0 l/m 0 min 0 min 231 W/m 6,4 km/h (2 Bft) 95,74 %
24.05.2022 17:50 17,1 C 17,2 C 13,3 C 70 % 1009,2 hPa 0,0 l/m 0 min 0 min 241 W/m 22,5 km/h (4 Bft) 93,48 %
24.05.2022 17:52 17,1 C 17,2 C 13,3 C 70 % 1009,2 hPa 0,0 l/m 0 min 0 min 252 W/m 16,1 km/h (3 Bft) 95,74 %
24.05.2022 17:54 17,0 C 18,3 C 13,3 C 70 % 1009,2 hPa 0,0 l/m 2 min 0 min 303 W/m 16,1 km/h (3 Bft) 95,74 %
24.05.2022 17:56 17,1 C 20,0 C 13,3 C 70 % 1009,2 hPa 0,0 l/m 2 min 0 min 338 W/m 12,9 km/h (3 Bft) 93,62 %
24.05.2022 17:58 17,2 C 21,7 C 13,9 C 71 % 1009,2 hPa 0,0 l/m 2 min 0 min 614 W/m 22,5 km/h (4 Bft) 94,23 %
24.05.2022 18:00 17,3 C 22,8 C 14,4 C 70 % 1009,1 hPa 0,0 l/m 2 min 0 min 503 W/m 16,1 km/h (3 Bft) 95,65 %
24.05.2022 18:02 17,5 C 22,2 C 14,4 C 70 % 1009,2 hPa 0,0 l/m 2 min 0 min 498 W/m 19,3 km/h (3 Bft) 95,74 %
24.05.2022 18:04 17,6 C 22,8 C 14,4 C 68 % 1009,1 hPa 0,0 l/m 2 min 0 min 493 W/m 22,5 km/h (4 Bft) 93,62 %
24.05.2022 18:08 17,7 C 20,0 C 14,4 C 67 % 1009,1 hPa 0,0 l/m 4 min 0 min 464 W/m 19,3 km/h (3 Bft) 92,55 %
24.05.2022 18:10 17,7 C 18,9 C 14,4 C 67 % 1009,1 hPa 0,0 l/m 0 min 0 min 137 W/m 16,1 km/h (3 Bft) 95,74 %
24.05.2022 18:12 17,7 C 18,3 C 13,9 C 67 % 1009,2 hPa 0,0 l/m 0 min 0 min 143 W/m 12,9 km/h (3 Bft) 93,48 %
24.05.2022 18:14 17,6 C 17,8 C 13,9 C 67 % 1009,3 hPa 0,0 l/m 0 min 0 min 152 W/m 35,4 km/h (5 Bft) 91,49 %
24.05.2022 18:16 17,6 C 17,2 C 13,3 C 68 % 1009,2 hPa 0,0 l/m 0 min 0 min 156 W/m 9,7 km/h (2 Bft) 93,62 %
24.05.2022 18:18 17,5 C 16,7 C 13,3 C 69 % 1009,2 hPa 0,0 l/m 0 min 0 min 139 W/m 25,7 km/h (4 Bft) 93,62 %
24.05.2022 18:20 17,4 C 16,7 C 13,3 C 69 % 1009,2 hPa 0,0 l/m 0 min 0 min 148 W/m 22,5 km/h (4 Bft) 95,74 %
24.05.2022 18:22 17,3 C 16,7 C 13,3 C 69 % 1009,2 hPa 0,0 l/m 0 min 0 min 172 W/m 19,3 km/h (3 Bft) 95,74 %
24.05.2022 18:24 17,2 C 17,8 C 13,3 C 69 % 1009,3 hPa 0,0 l/m 0 min 0 min 185 W/m 9,7 km/h (2 Bft) 97,83 %
24.05.2022 18:26 17,2 C 20,0 C 13,3 C 70 % 1009,3 hPa 0,0 l/m 2 min 0 min 394 W/m 16,1 km/h (3 Bft) 95,74 %
24.05.2022 18:28 17,3 C 21,1 C 13,9 C 69 % 1009,3 hPa 0,0 l/m 2 min 0 min 548 W/m 19,3 km/h (3 Bft) 93,62 %
24.05.2022 18:30 17,4 C 21,7 C 13,9 C 68 % 1009,3 hPa 0,0 l/m 2 min 0 min 503 W/m 29,0 km/h (5 Bft) 95,74 %
24.05.2022 18:32 17,6 C 21,7 C 14,4 C 68 % 1009,3 hPa 0,0 l/m 2 min 0 min 509 W/m 25,7 km/h (4 Bft) 95,74 %
24.05.2022 18:34 17,6 C 21,7 C 14,4 C 67 % 1009,3 hPa 0,0 l/m 2 min 0 min 473 W/m 12,9 km/h (3 Bft) 95,74 %
24.05.2022 18:36 17,7 C 20,6 C 14,4 C 67 % 1009,3 hPa 0,0 l/m 2 min 0 min 361 W/m 22,5 km/h (4 Bft) 95,65 %
24.05.2022 18:38 17,7 C 18,9 C 13,9 C 66 % 1009,4 hPa 0,0 l/m 0 min 0 min 163 W/m 29,0 km/h (5 Bft) 95,74 %
24.05.2022 18:40 17,6 C 17,8 C 13,9 C 67 % 1009,4 hPa 0,0 l/m 0 min 0 min 71 W/m 16,1 km/h (3 Bft) 93,62 %
24.05.2022 18:42 17,5 C 17,2 C 13,3 C 67 % 1009,4 hPa 0,0 l/m 0 min 0 min 62 W/m 9,7 km/h (2 Bft) 95,74 %
24.05.2022 18:44 17,4 C 16,7 C 13,3 C 68 % 1009,4 hPa 0,0 l/m 0 min 0 min 52 W/m 12,9 km/h (3 Bft) 97,87 %
24.05.2022 18:46 17,3 C 16,7 C 13,3 C 68 % 1009,4 hPa 0,0 l/m 0 min 0 min 49 W/m 12,9 km/h (3 Bft) 97,83 %
24.05.2022 18:48 17,2 C 16,1 C 12,8 C 68 % 1009,6 hPa 0,0 l/m 0 min 0 min 51 W/m 22,5 km/h (4 Bft) 100,00 %
24.05.2022 18:50 17,1 C 16,1 C 12,8 C 67 % 1009,6 hPa 0,0 l/m 0 min 0 min 64 W/m 25,7 km/h (4 Bft) 100,00 %
24.05.2022 18:52 16,9 C 16,1 C 12,8 C 69 % 1009,7 hPa 0,0 l/m 0 min 0 min 78 W/m 19,3 km/h (3 Bft) 100,00 %
24.05.2022 18:54 16,8 C 16,1 C 12,8 C 69 % 1009,7 hPa 0,0 l/m 0 min 0 min 91 W/m 16,1 km/h (3 Bft) 100,00 %
24.05.2022 18:56 16,7 C 16,1 C 12,8 C 69 % 1009,7 hPa 0,0 l/m 0 min 0 min 97 W/m 32,2 km/h (5 Bft) 100,00 %
24.05.2022 18:58 16,6 C 15,6 C 12,8 C 67 % 1010,0 hPa 0,0 l/m 0 min 0 min 97 W/m 29,0 km/h (5 Bft) 100,00 %
24.05.2022 19:00 16,5 C 15,6 C 12,2 C 65 % 1009,9 hPa 0,0 l/m 0 min 0 min 102 W/m 19,3 km/h (3 Bft) 100,00 %
24.05.2022 19:02 16,3 C 16,1 C 11,7 C 64 % 1009,8 hPa 0,0 l/m 0 min 2 min 170 W/m 25,7 km/h (4 Bft) 100,00 %
24.05.2022 19:04 16,2 C 17,2 C 11,1 C 66 % 1009,9 hPa 0,0 l/m 2 min 2 min 335 W/m 29,0 km/h (5 Bft) 100,00 %
24.05.2022 19:06 16,1 C 17,8 C 10,6 C 68 % 1009,9 hPa 0,0 l/m 2 min 2 min 422 W/m 29,0 km/h (5 Bft) 100,00 %
24.05.2022 19:08 16,0 C 17,8 C 10,0 C 68 % 1009,9 hPa 0,0 l/m 2 min 2 min 412 W/m 32,2 km/h (5 Bft) 97,87 %
24.05.2022 19:10 15,9 C 18,3 C 10,6 C 69 % 1009,8 hPa 0,0 l/m 2 min 2 min 430 W/m 29,0 km/h (5 Bft) 100,00 %
24.05.2022 19:12 16,0 C 17,8 C 11,1 C 70 % 1009,9 hPa 0,0 l/m 2 min 2 min 444 W/m 29,0 km/h (5 Bft) 100,00 %
24.05.2022 19:14 16,0 C 17,2 C 11,7 C 71 % 1009,8 hPa 0,0 l/m 2 min 0 min 432 W/m 16,1 km/h (3 Bft) 100,00 %
24.05.2022 19:16 16,0 C 16,7 C 11,7 C 69 % 1009,8 hPa 0,0 l/m 2 min 0 min 412 W/m 22,5 km/h (4 Bft) 100,00 %
24.05.2022 19:18 15,9 C 16,1 C 11,7 C 69 % 1009,9 hPa 0,0 l/m 2 min 0 min 372 W/m 19,3 km/h (3 Bft) 100,00 %
24.05.2022 19:20 15,9 C 16,1 C 11,7 C 69 % 1009,8 hPa 0,0 l/m 2 min 0 min 340 W/m 22,5 km/h (4 Bft) 100,00 %
24.05.2022 19:22 15,9 C 16,1 C 12,2 C 71 % 1009,8 hPa 0,0 l/m 2 min 0 min 316 W/m 12,9 km/h (3 Bft) 100,00 %
24.05.2022 19:24 16,0 C 16,1 C 12,2 C 71 % 1009,8 hPa 0,0 l/m 2 min 0 min 271 W/m 9,7 km/h (2 Bft) 100,00 %
24.05.2022 19:26 16,1 C 15,6 C 12,2 C 70 % 1009,8 hPa 0,0 l/m 2 min 0 min 178 W/m 16,1 km/h (3 Bft) 100,00 %
24.05.2022 19:28 16,1 C 15,6 C 11,7 C 70 % 1009,8 hPa 0,0 l/m 2 min 0 min 188 W/m 12,9 km/h (3 Bft) 97,87 %
24.05.2022 19:30 16,0 C 15,6 C 11,7 C 71 % 1009,9 hPa 0,0 l/m 2 min 0 min 193 W/m 12,9 km/h (3 Bft) 100,00 %
24.05.2022 19:32 16,0 C 15,6 C 11,7 C 70 % 1009,8 hPa 0,0 l/m 2 min 0 min 152 W/m 16,1 km/h (3 Bft) 100,00 %
24.05.2022 19:34 15,9 C 15,6 C 11,7 C 71 % 1009,8 hPa 0,0 l/m 0 min 0 min 101 W/m 16,1 km/h (3 Bft) 100,00 %
24.05.2022 19:36 15,9 C 15,6 C 11,7 C 71 % 1009,9 hPa 0,0 l/m 0 min 0 min 61 W/m 9,7 km/h (2 Bft) 100,00 %
24.05.2022 19:38 15,9 C 15,0 C 11,7 C 71 % 1009,8 hPa 0,0 l/m 0 min 0 min 54 W/m 9,7 km/h (2 Bft) 97,87 %
24.05.2022 19:40 15,8 C 15,0 C 11,7 C 72 % 1009,9 hPa 0,0 l/m 0 min 0 min 52 W/m 19,3 km/h (3 Bft) 100,00 %
24.05.2022 19:42 15,8 C 15,0 C 11,7 C 72 % 1009,9 hPa 0,0 l/m 0 min 0 min 50 W/m 16,1 km/h (3 Bft) 100,00 %
24.05.2022 19:44 15,7 C 15,0 C 11,7 C 72 % 1009,9 hPa 0,0 l/m 0 min 0 min 53 W/m 16,1 km/h (3 Bft) 100,00 %
24.05.2022 19:46 15,7 C 15,0 C 11,1 C 73 % 1010,0 hPa 0,0 l/m 0 min 0 min 60 W/m 6,4 km/h (2 Bft) 100,00 %
24.05.2022 19:48 15,6 C 15,0 C 11,7 C 73 % 1010,0 hPa 0,0 l/m 0 min 0 min 61 W/m 12,9 km/h (3 Bft) 100,00 %
24.05.2022 19:50 15,6 C 15,0 C 11,1 C 73 % 1010,1 hPa 0,0 l/m 0 min 0 min 62 W/m 12,9 km/h (3 Bft) 100,00 %
24.05.2022 19:52 15,5 C 14,4 C 11,1 C 74 % 1010,0 hPa 0,0 l/m 0 min 0 min 63 W/m 6,4 km/h (2 Bft) 100,00 %
24.05.2022 19:54 15,5 C 15,0 C 11,1 C 74 % 1010,0 hPa 0,0 l/m 0 min 0 min 65 W/m 9,7 km/h (2 Bft) 100,00 %
24.05.2022 19:56 15,4 C 15,0 C 11,1 C 74 % 1010,1 hPa 0,0 l/m 0 min 0 min 70 W/m 6,4 km/h (2 Bft) 100,00 %
24.05.2022 19:58 15,4 C 15,0 C 11,1 C 75 % 1010,1 hPa 0,0 l/m 0 min 0 min 82 W/m 6,4 km/h (2 Bft) 100,00 %
24.05.2022 20:00 15,4 C 15,0 C 11,1 C 75 % 1010,0 hPa 0,0 l/m 0 min 0 min 78 W/m 9,7 km/h (2 Bft) 100,00 %
24.05.2022 20:02 15,4 C 15,0 C 11,1 C 75 % 1010,0 hPa 0,0 l/m 0 min 0 min 76 W/m 6,4 km/h (2 Bft) 98,11 %
24.05.2022 20:04 15,4 C 15,0 C 11,7 C 75 % 1010,0 hPa 0,0 l/m 0 min 0 min 73 W/m 3,2 km/h (1 Bft) 100,00 %
24.05.2022 20:06 15,4 C 15,0 C 11,7 C 75 % 1010,0 hPa 0,0 l/m 0 min 0 min 68 W/m 9,7 km/h (2 Bft) 100,00 %
24.05.2022 20:08 15,4 C 15,0 C 11,7 C 75 % 1010,0 hPa 0,0 l/m 0 min 0 min 65 W/m 3,2 km/h (1 Bft) 97,87 %
24.05.2022 20:10 15,4 C 15,0 C 11,7 C 75 % 1010,0 hPa 0,0 l/m 0 min 0 min 66 W/m 3,2 km/h (1 Bft) 97,37 %
24.05.2022 20:12 15,4 C 15,0 C 11,7 C 76 % 1010,0 hPa 0,0 l/m 0 min 0 min 71 W/m 3,2 km/h (1 Bft) 93,62 %
24.05.2022 20:14 15,4 C 15,0 C 11,7 C 75 % 1010,0 hPa 0,0 l/m 0 min 0 min 76 W/m 3,2 km/h (1 Bft) 97,87 %
24.05.2022 20:16 15,4 C 15,0 C 11,7 C 75 % 1010,0 hPa 0,0 l/m 0 min 0 min 76 W/m 3,2 km/h (1 Bft) 95,65 %
24.05.2022 20:18 15,4 C 15,0 C 11,7 C 75 % 1010,1 hPa 0,0 l/m 0 min 0 min 72 W/m 3,2 km/h (1 Bft) 93,62 %
24.05.2022 20:20 15,4 C 15,0 C 11,7 C 75 % 1010,1 hPa 0,0 l/m 0 min 0 min 70 W/m 9,7 km/h (2 Bft) 93,62 %
24.05.2022 20:22 15,4 C 15,0 C 11,7 C 75 % 1010,0 hPa 0,0 l/m 0 min 0 min 66 W/m 3,2 km/h (1 Bft) 95,74 %
24.05.2022 20:24 15,4 C 15,0 C 11,7 C 74 % 1010,0 hPa 0,0 l/m 0 min 0 min 58 W/m 3,2 km/h (1 Bft) 95,74 %
24.05.2022 20:26 15,5 C 15,0 C 11,7 C 74 % 1010,1 hPa 0,0 l/m 0 min 0 min 49 W/m 12,9 km/h (3 Bft) 95,74 %
24.05.2022 20:28 15,4 C 15,0 C 11,7 C 74 % 1010,1 hPa 0,0 l/m 0 min 0 min 40 W/m 6,4 km/h (2 Bft) 95,65 %
24.05.2022 20:30 15,4 C 15,0 C 11,7 C 74 % 1010,1 hPa 0,0 l/m 0 min 0 min 36 W/m 3,2 km/h (1 Bft) 95,74 %
24.05.2022 20:32 15,5 C 15,0 C 11,1 C 75 % 1010,1 hPa 0,0 l/m 0 min 0 min 35 W/m 6,4 km/h (2 Bft) 95,74 %
24.05.2022 20:34 15,4 C 14,4 C 11,1 C 75 % 1010,1 hPa 0,0 l/m 0 min 0 min 35 W/m 3,2 km/h (1 Bft) 89,36 %
24.05.2022 20:36 15,4 C 14,4 C 11,1 C 74 % 1010,1 hPa 0,0 l/m 0 min 0 min 34 W/m 3,2 km/h (1 Bft) 93,62 %
24.05.2022 20:38 15,4 C 14,4 C 11,1 C 75 % 1010,2 hPa 0,0 l/m 0 min 0 min 33 W/m 12,9 km/h (3 Bft) 95,74 %
24.05.2022 20:40 15,4 C 14,4 C 11,1 C 75 % 1010,2 hPa 0,0 l/m 0 min 0 min 33 W/m 3,2 km/h (1 Bft) 95,65 %
24.05.2022 20:42 15,3 C 14,4 C 11,1 C 75 % 1010,2 hPa 0,0 l/m 0 min 0 min 33 W/m 16,1 km/h (3 Bft) 95,74 %
24.05.2022 20:44 15,3 C 14,4 C 11,1 C 76 % 1010,2 hPa 0,0 l/m 0 min 0 min 32 W/m 6,4 km/h (2 Bft) 95,74 %
24.05.2022 20:46 15,3 C 14,4 C 11,1 C 76 % 1010,2 hPa 0,0 l/m 0 min 0 min 32 W/m 6,4 km/h (2 Bft) 93,62 %
24.05.2022 20:48 15,3 C 14,4 C 11,1 C 76 % 1010,2 hPa 0,0 l/m 0 min 0 min 32 W/m 6,4 km/h (2 Bft) 95,74 %
24.05.2022 20:50 15,3 C 14,4 C 11,1 C 77 % 1010,2 hPa 0,0 l/m 0 min 0 min 32 W/m 3,2 km/h (1 Bft) 95,65 %
24.05.2022 20:52 15,2 C 14,4 C 11,1 C 77 % 1010,2 hPa 0,0 l/m 0 min 0 min 32 W/m 0,0 km/h (0 Bft) 93,62 %
24.05.2022 20:54 15,2 C 14,4 C 11,1 C 77 % 1010,3 hPa 0,0 l/m 0 min 0 min 30 W/m 3,2 km/h (1 Bft) 95,74 %
24.05.2022 20:56 15,2 C 14,4 C 11,1 C 77 % 1010,3 hPa 0,0 l/m 0 min 0 min 29 W/m 3,2 km/h (1 Bft) 91,49 %
24.05.2022 20:58 15,2 C 14,4 C 11,1 C 77 % 1010,3 hPa 0,0 l/m 0 min 0 min 28 W/m 3,2 km/h (1 Bft) 95,74 %
24.05.2022 21:00 15,2 C 14,4 C 11,1 C 77 % 1010,4 hPa 0,0 l/m 0 min 0 min 27 W/m 3,2 km/h (1 Bft) 95,74 %
24.05.2022 21:02 15,1 C 14,4 C 11,1 C 77 % 1010,4 hPa 0,0 l/m 2 min 0 min 26 W/m 3,2 km/h (1 Bft) 57,45 %
24.05.2022 21:04 15,1 C 13,9 C 10,6 C 77 % 1010,4 hPa 0,0 l/m 2 min 0 min 26 W/m 6,4 km/h (2 Bft) 97,67 %
24.05.2022 21:06 15,0 C 13,9 C 10,6 C 77 % 1010,4 hPa 0,0 l/m 2 min 0 min 25 W/m 6,4 km/h (2 Bft) 95,74 %
24.05.2022 21:08 15,0 C 13,9 C 10,6 C 77 % 1010,4 hPa 0,0 l/m 2 min 0 min 23 W/m 6,4 km/h (2 Bft) 95,74 %
24.05.2022 21:10 14,9 C 13,9 C 10,6 C 77 % 1010,5 hPa 0,0 l/m 2 min 0 min 21 W/m 9,7 km/h (2 Bft) 97,87 %
24.05.2022 21:12 14,9 C 13,9 C 10,6 C 78 % 1010,6 hPa 0,0 l/m 0 min 0 min 19 W/m 6,4 km/h (2 Bft) 95,74 %
24.05.2022 21:14 14,9 C 13,9 C 10,6 C 78 % 1010,6 hPa 0,0 l/m 0 min 0 min 17 W/m 6,4 km/h (2 Bft) 97,83 %
24.05.2022 21:16 14,9 C 13,9 C 10,6 C 78 % 1010,6 hPa 0,0 l/m 0 min 0 min 15 W/m 3,2 km/h (1 Bft) 97,92 %
24.05.2022 21:18 14,8 C 13,9 C 10,6 C 78 % 1010,6 hPa 0,0 l/m 0 min 0 min 13 W/m 6,4 km/h (2 Bft) 95,74 %
24.05.2022 21:20 14,8 C 13,9 C 10,6 C 78 % 1010,6 hPa 0,0 l/m 0 min 0 min 12 W/m 6,4 km/h (2 Bft) 97,87 %
24.05.2022 21:22 14,8 C 13,9 C 10,6 C 78 % 1010,6 hPa 0,0 l/m 0 min 0 min 12 W/m 3,2 km/h (1 Bft) 95,74 %
24.05.2022 21:24 14,8 C 13,9 C 10,6 C 78 % 1010,7 hPa 0,0 l/m 0 min 0 min 11 W/m 3,2 km/h (1 Bft) 97,87 %
24.05.2022 21:26 14,7 C 13,3 C 10,6 C 78 % 1010,7 hPa 0,0 l/m 0 min 0 min 11 W/m 3,2 km/h (1 Bft) 97,83 %
24.05.2022 21:28 14,7 C 13,3 C 10,6 C 79 % 1010,8 hPa 0,0 l/m 0 min 0 min 10 W/m 6,4 km/h (2 Bft) 97,87 %
24.05.2022 21:30 14,6 C 13,3 C 10,6 C 79 % 1010,8 hPa 0,0 l/m 0 min 0 min 9 W/m 6,4 km/h (2 Bft) 100,00 %
24.05.2022 21:32 14,6 C 13,3 C 10,6 C 79 % 1010,9 hPa 0,0 l/m 0 min 0 min 9 W/m 9,7 km/h (2 Bft) 100,00 %
24.05.2022 21:34 14,4 C 13,3 C 10,0 C 79 % 1010,9 hPa 0,0 l/m 0 min 0 min 8 W/m 12,9 km/h (3 Bft) 100,00 %
24.05.2022 21:36 14,3 C 13,3 C 10,0 C 79 % 1010,9 hPa 0,0 l/m 0 min 0 min 7 W/m 6,4 km/h (2 Bft) 100,00 %
24.05.2022 21:38 14,3 C 13,3 C 10,0 C 79 % 1011,0 hPa 0,0 l/m 0 min 0 min 7 W/m 6,4 km/h (2 Bft) 100,00 %
24.05.2022 21:40 14,3 C 13,3 C 10,0 C 79 % 1011,0 hPa 0,0 l/m 0 min 0 min 6 W/m 6,4 km/h (2 Bft) 100,00 %
24.05.2022 21:42 14,3 C 13,3 C 10,0 C 79 % 1011,0 hPa 0,0 l/m 0 min 0 min 5 W/m 9,7 km/h (2 Bft) 100,00 %
24.05.2022 21:44 14,2 C 12,8 C 10,0 C 80 % 1011,1 hPa 0,0 l/m 0 min 0 min 2 W/m 9,7 km/h (2 Bft) 100,00 %
24.05.2022 21:46 14,2 C 12,8 C 10,0 C 80 % 1011,1 hPa 0,0 l/m 0 min 0 min 0 W/m 6,4 km/h (2 Bft) 100,00 %
24.05.2022 21:48 14,1 C 12,8 C 10,0 C 80 % 1011,2 hPa 0,0 l/m 0 min 0 min 0 W/m 6,4 km/h (2 Bft) 100,00 %
24.05.2022 21:50 14,1 C 12,8 C 10,0 C 80 % 1011,1 hPa 0,0 l/m 0 min 0 min 0 W/m 3,2 km/h (1 Bft) 100,00 %
24.05.2022 21:52 14,1 C 12,8 C 10,0 C 80 % 1011,2 hPa 0,0 l/m 0 min 0 min 0 W/m 6,4 km/h (2 Bft) 97,87 %
24.05.2022 21:54 14,0 C 12,8 C 10,0 C 80 % 1011,1 hPa 0,0 l/m 0 min 0 min 0 W/m 3,2 km/h (1 Bft) 100,00 %
24.05.2022 21:56 13,9 C 12,8 C 10,0 C 80 % 1011,1 hPa 0,0 l/m 0 min 0 min 0 W/m 3,2 km/h (1 Bft) 100,00 %
24.05.2022 21:58 13,9 C 12,8 C 9,4 C 80 % 1011,2 hPa 0,0 l/m 0 min 0 min 0 W/m 6,4 km/h (2 Bft) 100,00 %
24.05.2022 22:00 13,9 C 12,8 C 9,4 C 80 % 1011,2 hPa 0,0 l/m 0 min 0 min 0 W/m 3,2 km/h (1 Bft) 97,87 %
24.05.2022 22:02 13,9 C 12,8 C 9,4 C 80 % 1011,3 hPa 0,0 l/m 0 min 0 min 0 W/m 6,4 km/h (2 Bft) 100,00 %
24.05.2022 22:04 13,8 C 12,8 C 9,4 C 80 % 1011,3 hPa 0,0 l/m 0 min 0 min 0 W/m 6,4 km/h (2 Bft) 100,00 %
24.05.2022 22:06 13,8 C 12,8 C 9,4 C 80 % 1011,3 hPa 0,0 l/m 0 min 0 min 0 W/m 3,2 km/h (1 Bft) 97,87 %
24.05.2022 22:08 13,7 C 12,8 C 9,4 C 80 % 1011,4 hPa 0,0 l/m 0 min 0 min 0 W/m 9,7 km/h (2 Bft) 97,87 %
24.05.2022 22:10 13,7 C 12,8 C 9,4 C 80 % 1011,4 hPa 0,0 l/m 0 min 0 min 0 W/m 6,4 km/h (2 Bft) 97,83 %
24.05.2022 22:12 13,7 C 12,8 C 9,4 C 81 % 1011,5 hPa 0,0 l/m 0 min 0 min 0 W/m 9,7 km/h (2 Bft) 95,74 %
24.05.2022 22:14 13,6 C 12,8 C 9,4 C 81 % 1011,5 hPa 0,0 l/m 0 min 0 min 0 W/m 3,2 km/h (1 Bft) 97,87 %
24.05.2022 22:16 13,6 C 12,8 C 9,4 C 81 % 1011,6 hPa 0,0 l/m 0 min 0 min 0 W/m 3,2 km/h (1 Bft) 95,74 %
24.05.2022 22:18 13,6 C 12,8 C 9,4 C 81 % 1011,6 hPa 0,0 l/m 0 min 0 min 0 W/m 6,4 km/h (2 Bft) 95,74 %
24.05.2022 22:20 13,6 C 12,8 C 9,4 C 82 % 1011,6 hPa 0,0 l/m 0 min 0 min 0 W/m 9,7 km/h (2 Bft) 95,74 %
24.05.2022 22:22 13,6 C 12,2 C 9,4 C 82 % 1011,6 hPa 0,0 l/m 0 min 0 min 0 W/m 3,2 km/h (1 Bft) 97,83 %
24.05.2022 22:24 13,5 C 12,8 C 9,4 C 82 % 1011,7 hPa 0,0 l/m 0 min 0 min 0 W/m 6,4 km/h (2 Bft) 97,87 %
24.05.2022 22:26 13,5 C 12,2 C 9,4 C 82 % 1011,6 hPa 0,0 l/m 0 min 0 min 0 W/m 9,7 km/h (2 Bft) 93,62 %
24.05.2022 22:28 13,4 C 12,2 C 9,4 C 82 % 1011,7 hPa 0,0 l/m 0 min 0 min 0 W/m 9,7 km/h (2 Bft) 97,87 %
24.05.2022 22:30 13,4 C 12,8 C 9,4 C 82 % 1011,7 hPa 0,0 l/m 0 min 0 min 0 W/m 3,2 km/h (1 Bft) 95,74 %
24.05.2022 22:32 13,4 C 12,2 C 9,4 C 82 % 1011,7 hPa 0,0 l/m 0 min 0 min 0 W/m 3,2 km/h (1 Bft) 97,87 %
24.05.2022 22:34 13,4 C 12,8 C 9,4 C 82 % 1011,8 hPa 0,0 l/m 0 min 0 min 0 W/m 6,4 km/h (2 Bft) 97,83 %
24.05.2022 22:36 13,3 C 12,2 C 9,4 C 82 % 1011,7 hPa 0,0 l/m 0 min 0 min 0 W/m 3,2 km/h (1 Bft) 100,00 %
24.05.2022 22:38 13,3 C 12,2 C 9,4 C 83 % 1011,7 hPa 0,0 l/m 0 min 0 min 0 W/m 3,2 km/h (1 Bft) 100,00 %
24.05.2022 22:40 13,3 C 12,2 C 9,4 C 83 % 1011,7 hPa 0,0 l/m 0 min 0 min 0 W/m 6,4 km/h (2 Bft) 100,00 %
24.05.2022 22:42 13,3 C 12,8 C 9,4 C 83 % 1011,7 hPa 0,0 l/m 0 min 0 min 0 W/m 6,4 km/h (2 Bft) 100,00 %
24.05.2022 22:44 13,3 C 12,8 C 9,4 C 83 % 1011,7 hPa 0,0 l/m 0 min 0 min 0 W/m 3,2 km/h (1 Bft) 100,00 %
24.05.2022 22:46 13,3 C 12,2 C 9,4 C 83 % 1011,7 hPa 0,0 l/m 0 min 0 min 0 W/m 6,4 km/h (2 Bft) 100,00 %
24.05.2022 22:48 13,3 C 12,2 C 9,4 C 83 % 1011,7 hPa 0,0 l/m 0 min 0 min 0 W/m 6,4 km/h (2 Bft) 100,00 %
24.05.2022 22:50 13,3 C 12,2 C 9,4 C 83 % 1011,7 hPa 0,0 l/m 0 min 0 min 0 W/m 3,2 km/h (1 Bft) 100,00 %
24.05.2022 22:52 13,3 C 12,2 C 9,4 C 83 % 1011,7 hPa 0,0 l/m 0 min 0 min 0 W/m 3,2 km/h (1 Bft) 97,87 %
24.05.2022 22:54 13,3 C 12,2 C 9,4 C 83 % 1011,7 hPa 0,0 l/m 0 min 0 min 0 W/m 3,2 km/h (1 Bft) 100,00 %
24.05.2022 22:56 13,3 C 12,2 C 9,4 C 83 % 1011,7 hPa 0,0 l/m 0 min 0 min 0 W/m 3,2 km/h (1 Bft) 100,00 %
24.05.2022 22:58 13,2 C 12,2 C 9,4 C 83 % 1011,8 hPa 0,0 l/m 0 min 0 min 0 W/m 3,2 km/h (1 Bft) 100,00 %
24.05.2022 23:00 13,2 C 12,2 C 9,4 C 83 % 1011,7 hPa 0,0 l/m 0 min 0 min 0 W/m 3,2 km/h (1 Bft) 100,00 %
24.05.2022 23:02 13,2 C 12,2 C 9,4 C 83 % 1011,7 hPa 0,0 l/m 0 min 0 min 0 W/m 6,4 km/h (2 Bft) 97,87 %
24.05.2022 23:04 13,2 C 12,2 C 9,4 C 83 % 1011,7 hPa 0,0 l/m 0 min 0 min 0 W/m 0,0 km/h (0 Bft) 100,00 %
24.05.2022 23:06 13,2 C 12,2 C 9,4 C 83 % 1011,8 hPa 0,0 l/m 0 min 0 min 0 W/m 3,2 km/h (1 Bft) 100,00 %
24.05.2022 23:08 13,2 C 12,2 C 9,4 C 84 % 1011,8 hPa 0,0 l/m 0 min 0 min 0 W/m 6,4 km/h (2 Bft) 100,00 %
24.05.2022 23:10 13,2 C 12,2 C 9,4 C 84 % 1011,8 hPa 0,0 l/m 0 min 0 min 0 W/m 3,2 km/h (1 Bft) 97,83 %
24.05.2022 23:12 13,2 C 12,2 C 9,4 C 84 % 1011,8 hPa 0,0 l/m 0 min 0 min 0 W/m 6,4 km/h (2 Bft) 100,00 %
24.05.2022 23:14 13,1 C 12,2 C 9,4 C 84 % 1011,9 hPa 0,0 l/m 0 min 0 min 0 W/m 6,4 km/h (2 Bft) 97,87 %
24.05.2022 23:16 13,1 C 12,2 C 9,4 C 84 % 1011,9 hPa 0,0 l/m 0 min 0 min 0 W/m 9,7 km/h (2 Bft) 97,87 %
24.05.2022 23:18 13,1 C 12,2 C 9,4 C 84 % 1011,9 hPa 0,0 l/m 0 min 0 min 0 W/m 6,4 km/h (2 Bft) 95,74 %
24.05.2022 23:20 13,1 C 12,2 C 9,4 C 84 % 1011,9 hPa 0,0 l/m 0 min 0 min 0 W/m 3,2 km/h (1 Bft) 95,74 %
24.05.2022 23:22 13,1 C 12,2 C 9,4 C 84 % 1011,9 hPa 0,0 l/m 0 min 0 min 0 W/m 3,2 km/h (1 Bft) 95,65 %
24.05.2022 23:24 13,1 C 12,2 C 9,4 C 84 % 1011,9 hPa 0,0 l/m 0 min 0 min 0 W/m 3,2 km/h (1 Bft) 95,74 %
24.05.2022 23:26 13,1 C 12,2 C 9,4 C 84 % 1011,9 hPa 0,0 l/m 0 min 0 min 0 W/m 3,2 km/h (1 Bft) 91,49 %
24.05.2022 23:28 13,1 C 12,2 C 9,4 C 84 % 1012,0 hPa 0,0 l/m 0 min 0 min 0 W/m 3,2 km/h (1 Bft) 95,74 %
24.05.2022 23:30 13,1 C 12,2 C 9,4 C 84 % 1012,0 hPa 0,0 l/m 0 min 0 min 0 W/m 3,2 km/h (1 Bft) 95,74 %
24.05.2022 23:32 13,1 C 12,2 C 9,4 C 84 % 1012,0 hPa 0,0 l/m 0 min 0 min 0 W/m 3,2 km/h (1 Bft) 95,74 %
24.05.2022 23:34 13,1 C 12,2 C 9,4 C 84 % 1012,0 hPa 0,0 l/m 0 min 0 min 0 W/m 0,0 km/h (0 Bft) 95,65 %
24.05.2022 23:36 13,1 C 12,2 C 9,4 C 84 % 1012,0 hPa 0,0 l/m 0 min 0 min 0 W/m 0,0 km/h (0 Bft) 95,74 %
24.05.2022 23:38 13,1 C 12,2 C 9,4 C 85 % 1012,0 hPa 0,0 l/m 0 min 0 min 0 W/m 3,2 km/h (1 Bft) 95,74 %
24.05.2022 23:40 13,1 C 12,2 C 8,9 C 84 % 1012,0 hPa 0,0 l/m 0 min 0 min 0 W/m 0,0 km/h (0 Bft) 93,62 %
24.05.2022 23:42 13,1 C 12,2 C 8,9 C 84 % 1012,0 hPa 0,0 l/m 0 min 0 min 0 W/m 0,0 km/h (0 Bft) 95,74 %
24.05.2022 23:44 13,1 C 12,2 C 8,9 C 84 % 1012,1 hPa 0,0 l/m 0 min 0 min 0 W/m 3,2 km/h (1 Bft) 93,62 %
24.05.2022 23:46 13,1 C 12,2 C 8,9 C 84 % 1012,1 hPa 0,0 l/m 0 min 0 min 0 W/m 3,2 km/h (1 Bft) 97,83 %
24.05.2022 23:48 13,1 C 12,2 C 8,9 C 84 % 1012,1 hPa 0,0 l/m 0 min 0 min 0 W/m 3,2 km/h (1 Bft) 95,74 %
24.05.2022 23:50 13,1 C 12,2 C 8,9 C 84 % 1012,1 hPa 0,0 l/m 0 min 0 min 0 W/m 3,2 km/h (1 Bft) 95,74 %
24.05.2022 23:52 13,0 C 12,2 C 8,9 C 85 % 1012,1 hPa 0,0 l/m 0 min 0 min 0 W/m 0,0 km/h (0 Bft) 93,62 %
24.05.2022 23:54 13,0 C 12,2 C 8,9 C 85 % 1012,1 hPa 0,0 l/m 0 min 0 min 0 W/m 0,0 km/h (0 Bft) 91,49 %
24.05.2022 23:56 13,0 C 12,2 C 8,9 C 85 % 1012,1 hPa 0,0 l/m 0 min 0 min 0 W/m 3,2 km/h (1 Bft) 93,62 %
24.05.2022 23:58 13,0 C 12,2 C 8,9 C 85 % 1012,2 hPa 0,0 l/m 0 min 0 min 0 W/m 3,2 km/h (1 Bft) 95,65 %
_ Min-Zeit 08:08 07:42 08:24 14:56 00:00 - - - - 20:52 02:22
Minimum _ 12,1 C 11,7 C 7,2 C 61 % 1001,7 hPa - - - - 0,0 km/h (0 Bft) 54,35 %
_ Max-Zeit 14:00 17:22 13:36 03:02 23:58 07:24 16:55 16:45 14:00 09:42 00:00
Maximum _ 19,1 C 22,8 C 23,3 C 96 % 1012,2 hPa 0,2 l/m 5 min 5 min 1174 W/m 51,5 km/h
SW (7 Bft)
100,00 %
Durchschnitt _ 14,9 C 15,0 C 11,4 C 82 % 1006,3 hPa #0,8 l/m #5:02 h #2:20 h 290 W/m 14,1 km/h (3 Bft) 97,53 %
© 2022 W. Hausmann